Time,TemperatureF,DewpointF,PressureIn,WindDirection,WindDirectionDegrees,WindSpeedMPH,WindSpeedGustMPH,Humidity,HourlyPrecipIn,Conditions,Clouds,dailyrainin,SoftwareType,DateUTC
2013-01-16 00:00:00,28.9,8.2,30.17,SSW,209,2.7,4.0,41,0.00,,---,0.00,VWS V14.01,2013-01-16 07:00:00,
2013-01-16 00:01:00,28.9,8.2,30.17,SSW,209,2.2,4.0,41,0.00,,---,0.00,VWS V14.01,2013-01-16 07:01:00,
2013-01-16 00:03:00,28.8,8.0,30.17,SSE,155,2.7,5.4,41,0.00,,---,0.00,VWS V14.01,2013-01-16 07:03:00,
2013-01-16 00:05:00,28.6,7.9,30.17,South,181,2.7,5.4,41,0.00,,---,0.00,VWS V14.01,2013-01-16 07:05:00,
2013-01-16 00:06:00,28.4,8.2,30.17,South,181,2.2,5.4,42,0.00,,---,0.00,VWS V14.01,2013-01-16 07:06:00,
2013-01-16 00:08:00,28.2,8.1,30.17,South,181,2.2,5.4,42,0.00,,---,0.00,VWS V14.01,2013-01-16 07:08:00,
2013-01-16 00:10:00,27.9,7.8,30.17,SSW,207,3.1,5.4,42,0.00,,---,0.00,VWS V14.01,2013-01-16 07:10:00,
2013-01-16 00:11:00,27.9,7.8,30.17,SSW,210,3.1,5.4,42,0.00,,---,0.00,VWS V14.01,2013-01-16 07:11:00,
2013-01-16 00:13:00,28.0,7.9,30.17,SSW,210,0.0,5.4,42,0.00,,---,0.00,VWS V14.01,2013-01-16 07:13:00,
2013-01-16 00:15:00,27.9,7.8,30.17,South,184,4.0,4.0,42,0.00,,---,0.00,VWS V14.01,2013-01-16 07:15:00,
2013-01-16 00:16:00,27.9,7.8,30.17,South,184,3.6,4.0,42,0.00,,---,0.00,VWS V14.01,2013-01-16 07:16:00,
2013-01-16 00:18:00,28.0,7.9,30.17,ESE,116,5.4,5.4,42,0.00,,---,0.00,VWS V14.01,2013-01-16 07:18:00,
2013-01-16 00:21:00,27.9,7.8,30.17,SSW,195,3.6,5.4,42,0.00,,---,0.00,VWS V14.01,2013-01-16 07:21:00,
2013-01-16 00:23:00,28.2,8.1,30.17,SE,135,3.1,5.4,42,0.00,,---,0.00,VWS V14.01,2013-01-16 07:23:00,
2013-01-16 00:26:00,28.2,8.1,30.17,SE,126,0.0,5.4,42,0.00,,---,0.00,VWS V14.01,2013-01-16 07:26:00,
2013-01-16 00:28:00,27.9,7.8,30.17,SSE,159,2.7,5.4,42,0.00,,---,0.00,VWS V14.01,2013-01-16 07:28:00,
2013-01-16 00:31:00,27.9,7.8,30.17,SSW,213,2.2,2.7,42,0.00,,---,0.00,VWS V14.01,2013-01-16 07:31:00,
2013-01-16 00:32:00,27.9,7.8,30.17,SSW,207,2.7,2.7,42,0.00,,---,0.00,VWS V14.01,2013-01-16 07:32:00,
2013-01-16 00:33:00,27.9,7.8,30.17,South,185,3.1,5.4,42,0.00,,---,0.00,VWS V14.01,2013-01-16 07:33:00,
2013-01-16 00:36:00,27.9,7.8,30.17,SSW,194,3.1,5.4,42,0.00,,---,0.00,VWS V14.01,2013-01-16 07:36:00,
2013-01-16 00:37:00,28.0,7.9,30.17,SSW,193,2.2,5.4,42,0.00,,---,0.00,VWS V14.01,2013-01-16 07:37:00,
2013-01-16 00:39:00,28.0,7.4,30.17,South,185,3.1,5.4,41,0.00,,---,0.00,VWS V14.01,2013-01-16 07:39:00,
2013-01-16 00:41:00,28.6,7.9,30.17,SSW,192,0.0,5.4,41,0.00,,---,0.00,VWS V14.01,2013-01-16 07:41:00,
2013-01-16 00:42:00,28.6,7.9,30.17,SW,231,3.1,5.4,41,0.00,,---,0.00,VWS V14.01,2013-01-16 07:42:00,
2013-01-16 00:44:00,28.8,8.0,30.17,West,270,2.2,5.4,41,0.00,,---,0.00,VWS V14.01,2013-01-16 07:44:00,
2013-01-16 00:46:00,29.1,8.4,30.17,West,265,2.7,2.7,41,0.00,,---,0.00,VWS V14.01,2013-01-16 07:46:00,
2013-01-16 00:47:00,29.1,8.4,30.17,SW,218,5.4,5.4,41,0.00,,---,0.00,VWS V14.01,2013-01-16 07:47:00,
2013-01-16 00:49:00,29.5,8.7,30.17,WNW,292,3.1,5.4,41,0.00,,---,0.00,VWS V14.01,2013-01-16 07:49:00,
2013-01-16 00:51:00,30.0,8.6,30.17,WSW,241,2.7,5.4,40,0.00,,---,0.00,VWS V14.01,2013-01-16 07:51:00,
2013-01-16 00:52:00,30.2,9.4,30.17,South,178,2.7,5.4,41,0.00,,---,0.00,VWS V14.01,2013-01-16 07:52:00,
2013-01-16 00:54:00,30.2,8.8,30.17,SW,232,3.1,5.4,40,0.00,,---,0.00,VWS V14.01,2013-01-16 07:54:00,
2013-01-16 00:56:00,30.6,8.6,30.17,West,268,5.8,5.8,39,0.00,,---,0.00,VWS V14.01,2013-01-16 07:56:00,
2013-01-16 00:57:00,30.7,8.7,30.17,SW,224,0.0,5.8,39,0.00,,---,0.00,VWS V14.01,2013-01-16 07:57:00,
2013-01-16 00:59:00,30.9,8.9,30.17,WNW,292,3.6,5.8,39,0.00,,---,0.00,VWS V14.01,2013-01-16 07:59:00,
2013-01-16 01:02:00,31.1,8.5,30.17,SSW,207,3.1,6.3,38,0.00,,---,0.00,VWS V14.01,2013-01-16 08:02:00,
2013-01-16 01:04:00,31.3,8.6,30.17,West,271,3.1,6.3,38,0.00,,---,0.00,VWS V14.01,2013-01-16 08:04:00,
2013-01-16 01:07:00,31.6,8.4,30.17,West,267,3.1,6.3,37,0.00,,---,0.00,VWS V14.01,2013-01-16 08:07:00,
2013-01-16 01:10:00,31.6,7.8,30.17,West,273,3.1,6.3,36,0.00,,---,0.00,VWS V14.01,2013-01-16 08:10:00,
2013-01-16 01:12:00,31.8,7.9,30.17,SW,236,2.7,6.7,36,0.00,,---,0.00,VWS V14.01,2013-01-16 08:12:00,
2013-01-16 01:15:00,31.8,7.9,30.17,SSW,207,3.1,3.1,36,0.00,,---,0.00,VWS V14.01,2013-01-16 08:15:00,
2013-01-16 01:17:00,31.5,7.6,30.17,SSW,196,2.7,4.9,36,0.00,,---,0.00,VWS V14.01,2013-01-16 08:17:00,
2013-01-16 01:18:00,31.5,7.6,30.17,SSW,200,4.0,4.9,36,0.00,,---,0.00,VWS V14.01,2013-01-16 08:18:00,
2013-01-16 01:20:00,31.3,7.4,30.17,SSW,207,2.7,4.9,36,0.00,,---,0.00,VWS V14.01,2013-01-16 08:20:00,
2013-01-16 01:22:00,31.3,6.8,30.17,SW,216,7.2,8.7,35,0.00,,---,0.00,VWS V14.01,2013-01-16 08:22:00,
2013-01-16 01:23:00,31.3,6.8,30.17,SW,229,5.4,8.7,35,0.00,,---,0.00,VWS V14.01,2013-01-16 08:23:00,
2013-01-16 01:25:00,31.6,7.8,30.17,SW,232,2.7,8.7,36,0.00,,---,0.00,VWS V14.01,2013-01-16 08:25:00,
2013-01-16 01:27:00,31.8,7.9,30.17,WSW,242,3.1,8.7,36,0.00,,---,0.00,VWS V14.01,2013-01-16 08:27:00,
2013-01-16 01:28:00,31.8,7.9,30.17,SSW,209,4.9,8.7,36,0.00,,---,0.00,VWS V14.01,2013-01-16 08:28:00,
2013-01-16 01:31:00,31.8,7.3,30.17,SSW,213,6.3,8.3,35,0.00,,---,0.00,VWS V14.01,2013-01-16 08:31:00,
2013-01-16 01:33:00,32.0,7.5,30.17,SSW,203,2.7,8.3,35,0.00,,---,0.00,VWS V14.01,2013-01-16 08:33:00,
2013-01-16 01:36:00,32.2,7.6,30.17,SW,223,2.2,8.3,35,0.00,,---,0.00,VWS V14.01,2013-01-16 08:36:00,
2013-01-16 01:38:00,32.2,7.6,30.17,SW,223,0.0,8.3,35,0.00,,---,0.00,VWS V14.01,2013-01-16 08:38:00,
2013-01-16 01:42:00,31.8,6.7,30.17,SW,217,2.7,8.3,34,0.00,,---,0.00,VWS V14.01,2013-01-16 08:42:00,
2013-01-16 01:43:00,31.8,6.7,30.17,SW,216,5.4,8.3,34,0.00,,---,0.00,VWS V14.01,2013-01-16 08:43:00,
2013-01-16 01:44:00,32.0,7.5,30.17,SW,216,2.2,8.3,35,0.00,,---,0.00,VWS V14.01,2013-01-16 08:44:00,
2013-01-16 01:47:00,32.0,7.5,30.17,SSW,192,2.7,5.4,35,0.00,,---,0.00,VWS V14.01,2013-01-16 08:47:00,
2013-01-16 01:48:00,32.0,7.5,30.17,SSW,195,3.6,5.4,35,0.00,,---,0.00,VWS V14.01,2013-01-16 08:48:00,
2013-01-16 01:49:00,32.0,7.5,30.17,SSW,202,4.0,5.4,35,0.00,,---,0.00,VWS V14.01,2013-01-16 08:49:00,
2013-01-16 01:52:00,32.0,7.5,30.17,SW,220,5.8,5.8,35,0.00,,---,0.00,VWS V14.01,2013-01-16 08:52:00,
2013-01-16 01:53:00,32.0,7.5,30.17,WSW,246,2.2,5.8,35,0.00,,---,0.00,VWS V14.01,2013-01-16 08:53:00,
2013-01-16 01:54:00,32.0,7.5,30.17,WSW,241,2.7,5.8,35,0.00,,---,0.00,VWS V14.01,2013-01-16 08:54:00,
2013-01-16 01:57:00,31.8,7.3,30.17,WSW,238,2.2,5.8,35,0.00,,---,0.00,VWS V14.01,2013-01-16 08:57:00,
2013-01-16 01:58:00,31.8,6.7,30.17,SSW,202,2.7,5.8,34,0.00,,---,0.00,VWS V14.01,2013-01-16 08:58:00,
2013-01-16 01:59:00,31.8,6.7,30.17,SSW,202,0.0,5.8,34,0.00,,---,0.00,VWS V14.01,2013-01-16 08:59:00,
2013-01-16 02:02:00,31.8,6.7,30.17,SW,226,5.8,5.8,34,0.00,,---,0.00,VWS V14.01,2013-01-16 09:02:00,
2013-01-16 02:04:00,32.0,6.8,30.17,South,179,5.4,6.3,34,0.00,,---,0.00,VWS V14.01,2013-01-16 09:04:00,
2013-01-16 02:08:00,32.4,7.1,30.17,SSW,194,4.9,6.3,34,0.00,,---,0.00,VWS V14.01,2013-01-16 09:08:00,
2013-01-16 02:09:00,32.4,7.1,30.17,SSW,197,3.6,6.3,34,0.00,,---,0.00,VWS V14.01,2013-01-16 09:09:00,
2013-01-16 02:12:00,32.4,7.1,30.17,SSW,197,4.0,6.3,34,0.00,,---,0.00,VWS V14.01,2013-01-16 09:12:00,
2013-01-16 02:14:00,32.4,7.1,30.17,SSW,196,4.0,6.3,34,0.00,,---,0.00,VWS V14.01,2013-01-16 09:14:00,
2013-01-16 02:18:00,32.2,7.0,30.17,SSW,201,2.7,3.1,34,0.00,,---,0.00,VWS V14.01,2013-01-16 09:18:00,
2013-01-16 02:19:00,32.0,6.8,30.17,SSW,201,2.2,3.1,34,0.00,,---,0.00,VWS V14.01,2013-01-16 09:19:00,
2013-01-16 02:20:00,32.0,6.8,30.17,SSW,201,0.0,3.1,34,0.00,,---,0.00,VWS V14.01,2013-01-16 09:20:00,
2013-01-16 02:23:00,32.0,7.5,30.17,WNW,287,8.1,14.1,35,0.00,,---,0.00,VWS V14.01,2013-01-16 09:23:00,
2013-01-16 02:24:00,32.0,6.8,30.17,NW,315,3.6,14.1,34,0.00,,---,0.00,VWS V14.01,2013-01-16 09:24:00,
2013-01-16 02:25:00,32.0,6.8,30.17,NW,315,3.1,14.1,34,0.00,,---,0.00,VWS V14.01,2013-01-16 09:25:00,
2013-01-16 02:28:00,31.8,6.7,30.14,South,190,2.2,14.1,34,0.00,,---,0.00,VWS V14.01,2013-01-16 09:28:00,
2013-01-16 02:29:00,31.6,6.5,30.14,South,190,0.0,14.1,34,0.00,,---,0.00,VWS V14.01,2013-01-16 09:29:00,
2013-01-16 02:30:00,31.6,6.5,30.14,South,190,0.0,14.1,34,0.00,,---,0.00,VWS V14.01,2013-01-16 09:30:00,
2013-01-16 02:31:00,31.5,6.3,30.14,South,188,0.0,0.0,34,0.00,,---,0.00,VWS V14.01,2013-01-16 09:31:00,
2013-01-16 02:34:00,31.3,6.2,30.14,South,169,0.0,3.1,34,0.00,,---,0.00,VWS V14.01,2013-01-16 09:34:00,
2013-01-16 02:35:00,31.1,6.0,30.14,South,169,0.0,3.1,34,0.00,,---,0.00,VWS V14.01,2013-01-16 09:35:00,
2013-01-16 02:36:00,31.1,6.0,30.14,South,169,0.0,3.1,34,0.00,,---,0.00,VWS V14.01,2013-01-16 09:36:00,
2013-01-16 02:39:00,30.9,5.9,30.14,South,176,0.0,3.1,34,0.00,,---,0.00,VWS V14.01,2013-01-16 09:39:00,
2013-01-16 02:40:00,30.7,5.7,30.14,SSW,203,3.6,5.4,34,0.00,,---,0.00,VWS V14.01,2013-01-16 09:40:00,
2013-01-16 02:41:00,30.7,5.7,30.14,SSW,203,2.7,5.4,34,0.00,,---,0.00,VWS V14.01,2013-01-16 09:41:00,
2013-01-16 02:44:00,30.9,5.9,30.17,SSW,203,0.0,5.4,34,0.00,,---,0.00,VWS V14.01,2013-01-16 09:44:00,
2013-01-16 02:45:00,31.1,6.0,30.17,SSW,203,0.0,0.0,34,0.00,,---,0.00,VWS V14.01,2013-01-16 09:45:00,
2013-01-16 02:46:00,31.1,6.0,30.17,SSW,203,0.0,0.0,34,0.00,,---,0.00,VWS V14.01,2013-01-16 09:46:00,
2013-01-16 02:49:00,31.1,6.0,30.17,SSW,203,0.0,2.7,34,0.00,,---,0.00,VWS V14.01,2013-01-16 09:49:00,
2013-01-16 02:50:00,31.1,6.0,30.17,South,169,2.7,2.7,34,0.00,,---,0.00,VWS V14.01,2013-01-16 09:50:00,
2013-01-16 02:51:00,31.1,6.0,30.17,South,182,2.7,2.7,34,0.00,,---,0.00,VWS V14.01,2013-01-16 09:51:00,
2013-01-16 02:54:00,31.1,6.0,30.17,South,187,4.0,4.0,34,0.00,,---,0.00,VWS V14.01,2013-01-16 09:54:00,
2013-01-16 02:55:00,31.1,6.0,30.17,SSW,198,0.0,4.0,34,0.00,,---,0.00,VWS V14.01,2013-01-16 09:55:00,
2013-01-16 02:56:00,31.1,6.0,30.17,SSW,197,2.2,4.0,34,0.00,,---,0.00,VWS V14.01,2013-01-16 09:56:00,
2013-01-16 02:59:00,31.1,6.0,30.14,South,185,0.0,4.0,34,0.00,,---,0.00,VWS V14.01,2013-01-16 09:59:00,
2013-01-16 03:00:00,31.1,6.0,30.14,South,185,0.0,0.0,34,0.00,,---,0.00,VWS V14.01,2013-01-16 10:00:00,
2013-01-16 03:01:00,31.3,6.2,30.14,South,187,3.6,3.6,34,0.00,,---,0.00,VWS V14.01,2013-01-16 10:01:00,
2013-01-16 03:04:00,31.5,6.3,30.14,SSW,192,3.6,4.9,34,0.00,,---,0.00,VWS V14.01,2013-01-16 10:04:00,
2013-01-16 03:05:00,31.5,6.3,30.14,SSW,202,2.7,4.9,34,0.00,,---,0.00,VWS V14.01,2013-01-16 10:05:00,
2013-01-16 03:06:00,31.6,6.5,30.14,WNW,292,2.7,4.9,34,0.00,,---,0.00,VWS V14.01,2013-01-16 10:06:00,
2013-01-16 03:09:00,32.0,6.8,30.14,SW,219,0.0,4.9,34,0.00,,---,0.00,VWS V14.01,2013-01-16 10:09:00,
2013-01-16 03:10:00,32.0,6.8,30.14,SW,219,2.2,4.9,34,0.00,,---,0.00,VWS V14.01,2013-01-16 10:10:00,
2013-01-16 03:11:00,32.2,7.0,30.14,South,177,3.6,4.9,34,0.00,,---,0.00,VWS V14.01,2013-01-16 10:11:00,
2013-01-16 03:14:00,32.2,7.0,30.14,NNE,33,0.0,5.4,34,0.00,,---,0.00,VWS V14.01,2013-01-16 10:14:00,
2013-01-16 03:15:00,32.2,7.0,30.14,SSE,158,4.0,4.0,34,0.00,,---,0.00,VWS V14.01,2013-01-16 10:15:00,
2013-01-16 03:16:00,32.2,6.3,30.14,South,189,2.2,4.9,33,0.00,,---,0.00,VWS V14.01,2013-01-16 10:16:00,
2013-01-16 03:17:00,32.2,6.3,30.14,South,189,0.0,4.9,33,0.00,,---,0.00,VWS V14.01,2013-01-16 10:17:00,
2013-01-16 03:20:00,32.4,7.1,30.14,South,177,5.4,5.4,34,0.00,,---,0.00,VWS V14.01,2013-01-16 10:20:00,
2013-01-16 03:22:00,32.5,6.6,30.14,SSW,206,2.7,5.4,33,0.00,,---,0.00,VWS V14.01,2013-01-16 10:22:00,
2013-01-16 03:25:00,32.5,6.6,30.14,WSW,246,3.1,5.4,33,0.00,,---,0.00,VWS V14.01,2013-01-16 10:25:00,
2013-01-16 03:27:00,32.7,6.8,30.14,SSW,196,0.0,5.4,33,0.00,,---,0.00,VWS V14.01,2013-01-16 10:27:00,
2013-01-16 03:30:00,32.5,7.3,30.17,WSW,243,0.0,2.7,34,0.00,,---,0.00,VWS V14.01,2013-01-16 10:30:00,
2013-01-16 03:31:00,32.5,7.3,30.17,WSW,243,0.0,2.7,34,0.00,,---,0.00,VWS V14.01,2013-01-16 10:31:00,
2013-01-16 03:32:00,32.2,6.3,30.17,West,263,3.1,3.1,33,0.00,,---,0.00,VWS V14.01,2013-01-16 10:32:00,
2013-01-16 03:36:00,32.5,7.3,30.17,NNW,340,0.0,6.3,34,0.00,,---,0.00,VWS V14.01,2013-01-16 10:36:00,
2013-01-16 03:37:00,32.5,7.3,30.17,SSW,196,3.6,6.3,34,0.00,,---,0.00,VWS V14.01,2013-01-16 10:37:00,
2013-01-16 03:41:00,32.7,6.8,30.17,SSW,199,2.7,6.3,33,0.00,,---,0.00,VWS V14.01,2013-01-16 10:41:00,
2013-01-16 03:42:00,32.5,6.6,30.14,South,172,2.7,6.3,33,0.00,,---,0.00,VWS V14.01,2013-01-16 10:42:00,
2013-01-16 03:46:00,32.5,7.3,30.14,SSW,212,2.2,2.7,34,0.00,,---,0.00,VWS V14.01,2013-01-16 10:46:00,
2013-01-16 03:47:00,32.5,7.3,30.14,SSW,204,2.7,3.6,34,0.00,,---,0.00,VWS V14.01,2013-01-16 10:47:00,
2013-01-16 03:51:00,32.2,7.0,30.14,SSW,204,0.0,3.6,34,0.00,,---,0.00,VWS V14.01,2013-01-16 10:51:00,
2013-01-16 03:52:00,32.0,6.8,30.14,SSW,204,2.7,3.6,34,0.00,,---,0.00,VWS V14.01,2013-01-16 10:52:00,
2013-01-16 03:53:00,32.0,6.8,30.14,SSW,204,2.2,3.6,34,0.00,,---,0.00,VWS V14.01,2013-01-16 10:53:00,
2013-01-16 03:56:00,32.0,6.2,30.14,South,189,3.6,4.5,33,0.00,,---,0.00,VWS V14.01,2013-01-16 10:56:00,
2013-01-16 03:57:00,32.2,6.3,30.14,SSW,195,3.6,4.5,33,0.00,,---,0.00,VWS V14.01,2013-01-16 10:57:00,
2013-01-16 03:58:00,32.2,6.3,30.14,SSW,196,2.7,4.5,33,0.00,,---,0.00,VWS V14.01,2013-01-16 10:58:00,
2013-01-16 04:01:00,32.7,6.8,30.14,SSW,200,0.0,0.0,33,0.00,,---,0.00,VWS V14.01,2013-01-16 11:01:00,
2013-01-16 04:02:00,32.5,6.6,30.14,SSW,200,2.2,2.2,33,0.00,,---,0.00,VWS V14.01,2013-01-16 11:02:00,
2013-01-16 04:03:00,32.5,6.6,30.14,SSW,200,2.2,2.2,33,0.00,,---,0.00,VWS V14.01,2013-01-16 11:03:00,
2013-01-16 04:06:00,32.2,6.3,30.14,SW,234,4.0,4.0,33,0.00,,---,0.00,VWS V14.01,2013-01-16 11:06:00,
2013-01-16 04:07:00,32.2,6.3,30.14,SSW,207,3.1,5.4,33,0.00,,---,0.00,VWS V14.01,2013-01-16 11:07:00,
2013-01-16 04:08:00,32.2,6.3,30.14,SSW,207,3.1,5.4,33,0.00,,---,0.00,VWS V14.01,2013-01-16 11:08:00,
2013-01-16 04:11:00,32.2,6.3,30.14,NNW,327,3.6,5.4,33,0.00,,---,0.00,VWS V14.01,2013-01-16 11:11:00,
2013-01-16 04:12:00,32.4,6.5,30.14,NW,311,2.7,5.4,33,0.00,,---,0.00,VWS V14.01,2013-01-16 11:12:00,
2013-01-16 04:13:00,32.2,6.3,30.14,West,278,3.6,5.4,33,0.00,,---,0.00,VWS V14.01,2013-01-16 11:13:00,
2013-01-16 04:17:00,32.7,6.1,30.14,SSW,202,2.7,3.1,32,0.00,,---,0.00,VWS V14.01,2013-01-16 11:17:00,
2013-01-16 04:18:00,32.9,7.0,30.14,SW,221,4.0,4.0,33,0.00,,---,0.00,VWS V14.01,2013-01-16 11:18:00,
2013-01-16 04:22:00,32.7,6.8,30.14,WNW,302,2.7,4.9,33,0.00,,---,0.00,VWS V14.01,2013-01-16 11:22:00,
2013-01-16 04:23:00,32.7,6.8,30.14,NW,315,2.7,4.9,33,0.00,,---,0.00,VWS V14.01,2013-01-16 11:23:00,
2013-01-16 04:27:00,32.5,6.6,30.14,WNW,292,2.2,4.9,33,0.00,,---,0.00,VWS V14.01,2013-01-16 11:27:00,
2013-01-16 04:28:00,32.7,6.8,30.14,WNW,292,0.0,4.9,33,0.00,,---,0.00,VWS V14.01,2013-01-16 11:28:00,
2013-01-16 04:32:00,32.9,7.0,30.14,SE,136,3.1,3.6,33,0.00,,---,0.00,VWS V14.01,2013-01-16 11:32:00,
2013-01-16 04:33:00,32.9,7.0,30.14,SE,136,2.7,3.6,33,0.00,,---,0.00,VWS V14.01,2013-01-16 11:33:00,
2013-01-16 04:34:00,32.7,6.8,30.14,SE,136,0.0,3.6,33,0.00,,---,0.00,VWS V14.01,2013-01-16 11:34:00,
2013-01-16 04:37:00,32.4,6.5,30.14,South,174,0.0,3.6,33,0.00,,---,0.00,VWS V14.01,2013-01-16 11:37:00,
2013-01-16 04:38:00,32.2,6.3,30.14,South,174,0.0,3.6,33,0.00,,---,0.00,VWS V14.01,2013-01-16 11:38:00,
2013-01-16 04:39:00,32.0,6.2,30.14,South,174,0.0,3.6,33,0.00,,---,0.00,VWS V14.01,2013-01-16 11:39:00,
2013-01-16 04:43:00,31.1,5.4,30.14,South,174,0.0,3.6,33,0.00,,---,0.00,VWS V14.01,2013-01-16 11:43:00,
2013-01-16 04:44:00,30.9,5.9,30.14,South,174,0.0,3.6,34,0.00,,---,0.00,VWS V14.01,2013-01-16 11:44:00,
2013-01-16 04:48:00,30.4,5.4,30.14,South,175,0.0,3.6,34,0.00,,---,0.00,VWS V14.01,2013-01-16 11:48:00,
2013-01-16 04:49:00,30.2,5.2,30.14,South,175,0.0,3.6,34,0.00,,---,0.00,VWS V14.01,2013-01-16 11:49:00,
2013-01-16 04:53:00,29.8,5.5,30.14,South,176,2.2,3.6,35,0.00,,---,0.00,VWS V14.01,2013-01-16 11:53:00,
2013-01-16 04:55:00,29.7,5.4,30.14,NW,312,0.0,4.0,35,0.00,,---,0.00,VWS V14.01,2013-01-16 11:55:00,
2013-01-16 04:58:00,29.7,5.4,30.14,East,90,2.2,4.0,35,0.00,,---,0.00,VWS V14.01,2013-01-16 11:58:00,
2013-01-16 04:59:00,29.7,5.4,30.14,East,90,0.0,4.0,35,0.00,,---,0.00,VWS V14.01,2013-01-16 11:59:00,
2013-01-16 05:00:00,29.7,6.0,30.14,ENE,64,2.2,4.0,36,0.00,,---,0.00,VWS V14.01,2013-01-16 12:00:00,
2013-01-16 05:03:00,29.1,4.9,30.14,WNW,290,2.7,3.6,35,0.00,,---,0.00,VWS V14.01,2013-01-16 12:03:00,
2013-01-16 05:04:00,29.1,4.9,30.14,WNW,289,2.7,3.6,35,0.00,,---,0.00,VWS V14.01,2013-01-16 12:04:00,
2013-01-16 05:05:00,28.9,4.7,30.14,South,187,2.7,3.6,35,0.00,,---,0.00,VWS V14.01,2013-01-16 12:05:00,
2013-01-16 05:08:00,29.1,5.5,30.14,South,184,2.2,4.0,36,0.00,,---,0.00,VWS V14.01,2013-01-16 12:08:00,
2013-01-16 05:09:00,29.1,5.5,30.14,SSW,198,4.5,4.5,36,0.00,,---,0.00,VWS V14.01,2013-01-16 12:09:00,
2013-01-16 05:10:00,29.3,5.1,30.14,ESE,118,4.9,5.8,35,0.00,,---,0.00,VWS V14.01,2013-01-16 12:10:00,
2013-01-16 05:13:00,30.0,5.1,30.11,SSW,200,4.9,6.3,34,0.00,,---,0.00,VWS V14.01,2013-01-16 12:13:00,
2013-01-16 05:14:00,30.6,5.5,30.11,South,187,3.6,6.3,34,0.00,,---,0.00,VWS V14.01,2013-01-16 12:14:00,
2013-01-16 05:15:00,30.6,5.5,30.11,South,187,2.2,6.3,34,0.00,,---,0.00,VWS V14.01,2013-01-16 12:15:00,
2013-01-16 05:18:00,31.1,6.0,30.11,North,357,4.0,4.0,34,0.00,,---,0.00,VWS V14.01,2013-01-16 12:18:00,
2013-01-16 05:19:00,30.9,5.9,30.11,ENE,62,3.6,4.0,34,0.00,,---,0.00,VWS V14.01,2013-01-16 12:19:00,
2013-01-16 05:20:00,31.1,6.0,30.11,ESE,105,4.0,5.4,34,0.00,,---,0.00,VWS V14.01,2013-01-16 12:20:00,
2013-01-16 05:23:00,31.1,6.7,30.11,WSW,248,0.0,5.4,35,0.00,,---,0.00,VWS V14.01,2013-01-16 12:23:00,
2013-01-16 05:24:00,31.1,6.7,30.11,WSW,248,0.0,5.4,35,0.00,,---,0.00,VWS V14.01,2013-01-16 12:24:00,
2013-01-16 05:25:00,31.1,6.7,30.11,WSW,248,2.7,5.4,35,0.00,,---,0.00,VWS V14.01,2013-01-16 12:25:00,
2013-01-16 05:28:00,30.4,5.4,30.11,SW,216,0.0,5.4,34,0.00,,---,0.00,VWS V14.01,2013-01-16 12:28:00,
2013-01-16 05:29:00,30.4,5.4,30.11,SW,216,0.0,5.4,34,0.00,,---,0.00,VWS V14.01,2013-01-16 12:29:00,
2013-01-16 05:30:00,30.2,5.9,30.11,SW,216,0.0,0.0,35,0.00,,---,0.00,VWS V14.01,2013-01-16 12:30:00,
2013-01-16 05:31:00,30.2,5.9,30.11,SW,216,0.0,0.0,35,0.00,,---,0.00,VWS V14.01,2013-01-16 12:31:00,
2013-01-16 05:33:00,30.2,5.9,30.11,SW,216,0.0,0.0,35,0.00,,---,0.00,VWS V14.01,2013-01-16 12:33:00,
2013-01-16 05:34:00,30.2,5.9,30.11,SW,216,0.0,0.0,35,0.00,,---,0.00,VWS V14.01,2013-01-16 12:34:00,
2013-01-16 05:35:00,30.2,5.9,30.11,SW,216,0.0,0.0,35,0.00,,---,0.00,VWS V14.01,2013-01-16 12:35:00,
2013-01-16 05:36:00,30.2,5.9,30.11,SW,214,2.7,2.7,35,0.00,,---,0.00,VWS V14.01,2013-01-16 12:36:00,
2013-01-16 05:39:00,30.2,5.9,30.11,SSW,205,2.2,4.0,35,0.00,,---,0.00,VWS V14.01,2013-01-16 12:39:00,
2013-01-16 05:40:00,30.2,5.9,30.11,South,170,2.7,4.0,35,0.00,,---,0.00,VWS V14.01,2013-01-16 12:40:00,
2013-01-16 05:41:00,30.2,5.9,30.11,South,186,3.6,4.0,35,0.00,,---,0.00,VWS V14.01,2013-01-16 12:41:00,
2013-01-16 05:44:00,29.8,5.5,30.11,West,269,3.1,5.4,35,0.00,,---,0.00,VWS V14.01,2013-01-16 12:44:00,
2013-01-16 05:45:00,29.5,5.2,30.11,West,269,0.0,2.2,35,0.00,,---,0.00,VWS V14.01,2013-01-16 12:45:00,
2013-01-16 05:46:00,29.5,5.2,30.11,WSW,237,2.2,2.2,35,0.00,,---,0.00,VWS V14.01,2013-01-16 12:46:00,
2013-01-16 05:49:00,29.1,4.3,30.11,South,190,4.9,4.9,34,0.00,,---,0.00,VWS V14.01,2013-01-16 12:49:00,
2013-01-16 05:50:00,29.7,5.4,30.11,West,269,2.7,4.9,35,0.00,,---,0.00,VWS V14.01,2013-01-16 12:50:00,
2013-01-16 05:51:00,30.0,5.7,30.11,West,273,3.1,4.9,35,0.00,,---,0.00,VWS V14.01,2013-01-16 12:51:00,
2013-01-16 05:54:00,30.7,5.7,30.11,SSW,197,2.7,4.9,34,0.00,,---,0.00,VWS V14.01,2013-01-16 12:54:00,
2013-01-16 05:56:00,31.5,6.3,30.11,SSW,197,2.2,4.9,34,0.00,,---,0.00,VWS V14.01,2013-01-16 12:56:00,
2013-01-16 05:59:00,32.4,6.5,30.14,SSW,196,0.0,4.9,33,0.00,,---,0.00,VWS V14.01,2013-01-16 12:59:00,
2013-01-16 06:01:00,32.5,6.6,30.14,SSW,196,0.0,0.0,33,0.00,,---,0.00,VWS V14.01,2013-01-16 13:01:00,
2013-01-16 06:02:00,32.5,6.6,30.14,SSW,196,0.0,0.0,33,0.00,,---,0.00,VWS V14.01,2013-01-16 13:02:00,
2013-01-16 06:04:00,32.5,6.6,30.14,SSW,199,2.7,2.7,33,0.00,,---,0.00,VWS V14.01,2013-01-16 13:04:00,
2013-01-16 06:05:00,32.5,6.6,30.14,SSW,205,3.1,3.1,33,0.00,,---,0.00,VWS V14.01,2013-01-16 13:05:00,
2013-01-16 06:06:00,32.5,6.6,30.14,SSW,205,3.6,3.6,33,0.00,,---,0.00,VWS V14.01,2013-01-16 13:06:00,
2013-01-16 06:07:00,32.5,6.6,30.14,SSW,205,2.7,3.6,33,0.00,,---,0.00,VWS V14.01,2013-01-16 13:07:00,
2013-01-16 06:10:00,32.7,6.8,30.14,SSW,204,0.0,3.6,33,0.00,,---,0.00,VWS V14.01,2013-01-16 13:10:00,
2013-01-16 06:11:00,32.7,6.8,30.14,SSW,204,0.0,3.6,33,0.00,,---,0.00,VWS V14.01,2013-01-16 13:11:00,
2013-01-16 06:12:00,32.7,6.8,30.11,SSW,204,0.0,3.6,33,0.00,,---,0.00,VWS V14.01,2013-01-16 13:12:00,
2013-01-16 06:15:00,32.7,6.8,30.11,WNW,299,0.0,0.0,33,0.00,,---,0.00,VWS V14.01,2013-01-16 13:15:00,
2013-01-16 06:16:00,32.7,6.8,30.11,WNW,299,0.0,0.0,33,0.00,,---,0.00,VWS V14.01,2013-01-16 13:16:00,
2013-01-16 06:17:00,32.5,6.6,30.11,WNW,299,0.0,0.0,33,0.00,,---,0.00,VWS V14.01,2013-01-16 13:17:00,
2013-01-16 06:20:00,32.2,6.3,30.11,WNW,299,0.0,2.2,33,0.00,,---,0.00,VWS V14.01,2013-01-16 13:20:00,
2013-01-16 06:21:00,32.2,6.3,30.11,WNW,299,0.0,2.2,33,0.00,,---,0.00,VWS V14.01,2013-01-16 13:21:00,
2013-01-16 06:22:00,32.2,6.3,30.11,WNW,298,2.7,2.7,33,0.00,,---,0.00,VWS V14.01,2013-01-16 13:22:00,
2013-01-16 06:25:00,31.6,5.8,30.11,SE,142,2.7,3.1,33,0.00,,---,0.00,VWS V14.01,2013-01-16 13:25:00,
2013-01-16 06:26:00,31.6,5.8,30.11,SE,140,2.2,3.1,33,0.00,,---,0.00,VWS V14.01,2013-01-16 13:26:00,
2013-01-16 06:27:00,31.6,5.8,30.11,SSE,148,2.2,3.1,33,0.00,,---,0.00,VWS V14.01,2013-01-16 13:27:00,
2013-01-16 06:30:00,31.1,6.0,30.11,South,178,0.0,0.0,34,0.00,,---,0.00,VWS V14.01,2013-01-16 13:30:00,
2013-01-16 06:31:00,31.1,6.0,30.11,South,178,0.0,0.0,34,0.00,,---,0.00,VWS V14.01,2013-01-16 13:31:00,
2013-01-16 06:32:00,30.9,5.9,30.11,South,178,2.2,2.2,34,0.00,,---,0.00,VWS V14.01,2013-01-16 13:32:00,
2013-01-16 06:35:00,30.4,5.4,30.11,West,273,2.7,3.6,34,0.00,,---,0.00,VWS V14.01,2013-01-16 13:35:00,
2013-01-16 06:36:00,30.4,5.4,30.11,West,274,3.1,3.6,34,0.00,,---,0.00,VWS V14.01,2013-01-16 13:36:00,
2013-01-16 06:37:00,30.4,5.4,30.11,WNW,290,0.0,3.6,34,0.00,,---,0.00,VWS V14.01,2013-01-16 13:37:00,
2013-01-16 06:41:00,31.1,6.0,30.11,South,185,2.2,4.9,34,0.00,,---,0.00,VWS V14.01,2013-01-16 13:41:00,
2013-01-16 06:42:00,31.3,6.2,30.11,South,183,0.0,4.9,34,0.00,,---,0.00,VWS V14.01,2013-01-16 13:42:00,
2013-01-16 06:43:00,31.3,6.2,30.11,South,181,0.0,4.9,34,0.00,,---,0.00,VWS V14.01,2013-01-16 13:43:00,
2013-01-16 06:46:00,31.3,6.2,30.11,WSW,251,0.0,3.6,34,0.00,,---,0.00,VWS V14.01,2013-01-16 13:46:00,
2013-01-16 06:47:00,31.1,6.0,30.11,WSW,251,0.0,3.6,34,0.00,,---,0.00,VWS V14.01,2013-01-16 13:47:00,
2013-01-16 06:48:00,31.1,6.0,30.11,WSW,251,0.0,3.6,34,0.00,,---,0.00,VWS V14.01,2013-01-16 13:48:00,
2013-01-16 06:51:00,31.1,6.0,30.11,ESE,110,0.0,5.4,34,0.00,,---,0.00,VWS V14.01,2013-01-16 13:51:00,
2013-01-16 06:52:00,31.1,6.0,30.11,ESE,110,0.0,5.4,34,0.00,,---,0.00,VWS V14.01,2013-01-16 13:52:00,
2013-01-16 06:53:00,30.9,5.9,30.11,ESE,110,2.2,5.4,34,0.00,,---,0.00,VWS V14.01,2013-01-16 13:53:00,
2013-01-16 06:56:00,30.4,5.4,30.11,SE,134,0.0,5.4,34,0.00,,---,0.00,VWS V14.01,2013-01-16 13:56:00,
2013-01-16 06:57:00,30.2,5.9,30.11,SE,134,0.0,5.4,35,0.00,,---,0.00,VWS V14.01,2013-01-16 13:57:00,
2013-01-16 06:58:00,30.0,5.7,30.11,SE,134,0.0,5.4,35,0.00,,---,0.00,VWS V14.01,2013-01-16 13:58:00,
2013-01-16 07:01:00,30.0,5.7,30.11,South,172,2.7,3.1,35,0.00,,---,0.00,VWS V14.01,2013-01-16 14:01:00,
2013-01-16 07:02:00,30.0,5.7,30.11,South,172,0.0,3.1,35,0.00,,---,0.00,VWS V14.01,2013-01-16 14:02:00,
2013-01-16 07:03:00,30.0,5.7,30.11,South,172,0.0,3.1,35,0.00,,---,0.00,VWS V14.01,2013-01-16 14:03:00,
2013-01-16 07:06:00,30.0,5.7,30.11,South,189,0.0,3.1,35,0.00,,---,0.00,VWS V14.01,2013-01-16 14:06:00,
2013-01-16 07:07:00,29.8,5.5,30.11,South,189,0.0,3.1,35,0.00,,---,0.00,VWS V14.01,2013-01-16 14:07:00,
2013-01-16 07:08:00,29.8,5.5,30.11,South,185,3.1,3.1,35,0.00,,---,0.00,VWS V14.01,2013-01-16 14:08:00,
2013-01-16 07:11:00,29.7,6.0,30.11,South,185,0.0,3.1,36,0.00,,---,0.00,VWS V14.01,2013-01-16 14:11:00,
2013-01-16 07:13:00,29.5,5.8,30.11,South,185,0.0,3.1,36,0.00,,---,0.00,VWS V14.01,2013-01-16 14:13:00,
2013-01-16 07:16:00,29.3,5.7,30.11,SSW,200,2.7,2.7,36,0.00,,---,0.00,VWS V14.01,2013-01-16 14:16:00,
2013-01-16 07:18:00,29.3,5.7,30.11,South,177,2.7,3.1,36,0.00,,---,0.00,VWS V14.01,2013-01-16 14:18:00,
2013-01-16 07:22:00,29.7,5.4,30.11,WNW,292,4.9,4.9,35,0.00,,---,0.00,VWS V14.01,2013-01-16 14:22:00,
2013-01-16 07:23:00,29.7,5.4,30.11,WNW,288,3.1,4.9,35,0.00,,---,0.00,VWS V14.01,2013-01-16 14:23:00,
2013-01-16 07:27:00,28.9,4.7,30.11,WNW,294,0.0,4.9,35,0.00,,---,0.00,VWS V14.01,2013-01-16 14:27:00,
2013-01-16 07:28:00,28.8,4.6,30.11,WNW,294,0.0,4.9,35,0.00,,---,0.00,VWS V14.01,2013-01-16 14:28:00,
2013-01-16 07:32:00,28.9,4.7,30.11,SSW,197,4.0,4.9,35,0.00,,---,0.00,VWS V14.01,2013-01-16 14:32:00,
2013-01-16 07:33:00,29.1,4.9,30.11,SSW,192,2.2,4.9,35,0.00,,---,0.00,VWS V14.01,2013-01-16 14:33:00,
2013-01-16 07:37:00,30.2,5.9,30.11,SSW,192,0.0,4.9,35,0.00,,---,0.00,VWS V14.01,2013-01-16 14:37:00,
2013-01-16 07:38:00,30.2,5.9,30.11,SSW,192,0.0,4.9,35,0.00,,---,0.00,VWS V14.01,2013-01-16 14:38:00,
2013-01-16 07:39:00,30.4,5.4,30.11,SSW,192,0.0,4.9,34,0.00,,---,0.00,VWS V14.01,2013-01-16 14:39:00,
2013-01-16 07:42:00,30.4,5.4,30.11,WNW,292,3.6,4.9,34,0.00,,---,0.00,VWS V14.01,2013-01-16 14:42:00,
2013-01-16 07:43:00,30.2,5.9,30.11,WNW,293,0.0,4.9,35,0.00,,---,0.00,VWS V14.01,2013-01-16 14:43:00,
2013-01-16 07:44:00,30.4,5.4,30.11,WNW,292,0.0,4.9,34,0.00,,---,0.00,VWS V14.01,2013-01-16 14:44:00,
2013-01-16 07:47:00,30.7,5.7,30.11,WNW,292,0.0,2.2,34,0.00,,---,0.00,VWS V14.01,2013-01-16 14:47:00,
2013-01-16 07:48:00,30.9,5.9,30.11,WNW,292,0.0,2.2,34,0.00,,---,0.00,VWS V14.01,2013-01-16 14:48:00,
2013-01-16 07:49:00,30.9,5.9,30.11,WNW,292,0.0,2.2,34,0.00,,---,0.00,VWS V14.01,2013-01-16 14:49:00,
2013-01-16 07:52:00,31.1,6.0,30.11,West,279,0.0,3.1,34,0.00,,---,0.00,VWS V14.01,2013-01-16 14:52:00,
2013-01-16 07:53:00,31.1,6.0,30.11,West,279,0.0,3.1,34,0.00,,---,0.00,VWS V14.01,2013-01-16 14:53:00,
2013-01-16 07:55:00,31.3,6.2,30.11,West,279,0.0,3.1,34,0.00,,---,0.00,VWS V14.01,2013-01-16 14:55:00,
2013-01-16 07:57:00,31.1,6.0,30.14,West,279,2.2,3.1,34,0.00,,---,0.00,VWS V14.01,2013-01-16 14:57:00,
2013-01-16 07:58:00,31.3,6.2,30.14,North,0,2.7,4.0,34,0.00,,---,0.00,VWS V14.01,2013-01-16 14:58:00,
2013-01-16 08:00:00,31.5,6.3,30.14,North,0,2.2,4.0,34,0.00,,---,0.00,VWS V14.01,2013-01-16 15:00:00,
2013-01-16 08:02:00,31.8,6.7,30.14,North,0,0.0,2.2,34,0.00,,---,0.00,VWS V14.01,2013-01-16 15:02:00,
2013-01-16 08:03:00,32.0,6.2,30.14,North,0,0.0,2.2,33,0.00,,---,0.00,VWS V14.01,2013-01-16 15:03:00,
2013-01-16 08:05:00,32.2,6.3,30.14,NNW,342,3.6,3.6,33,0.00,,---,0.00,VWS V14.01,2013-01-16 15:05:00,
2013-01-16 08:07:00,32.5,6.6,30.14,SSW,196,3.6,4.0,33,0.00,,---,0.00,VWS V14.01,2013-01-16 15:07:00,
2013-01-16 08:08:00,32.7,6.8,30.14,SSW,197,2.7,4.0,33,0.00,,---,0.00,VWS V14.01,2013-01-16 15:08:00,
2013-01-16 08:09:00,32.7,6.8,30.14,SSW,203,2.2,4.0,33,0.00,,---,0.00,VWS V14.01,2013-01-16 15:09:00,
2013-01-16 08:10:00,32.7,6.8,30.14,SSW,209,2.2,4.0,33,0.00,,---,0.00,VWS V14.01,2013-01-16 15:10:00,
2013-01-16 08:12:00,32.7,6.8,30.14,South,175,2.7,4.0,33,0.00,,---,0.00,VWS V14.01,2013-01-16 15:12:00,
2013-01-16 08:13:00,32.9,7.0,30.14,South,173,0.0,4.0,33,0.00,,---,0.00,VWS V14.01,2013-01-16 15:13:00,
2013-01-16 08:14:00,32.7,6.8,30.14,South,173,0.0,4.0,33,0.00,,---,0.00,VWS V14.01,2013-01-16 15:14:00,
2013-01-16 08:15:00,32.7,6.8,30.14,South,172,3.1,4.0,33,0.00,,---,0.00,VWS V14.01,2013-01-16 15:15:00,
2013-01-16 08:17:00,33.1,6.4,30.14,South,171,0.0,4.0,32,0.00,,---,0.00,VWS V14.01,2013-01-16 15:17:00,
2013-01-16 08:18:00,33.1,7.1,30.14,South,171,0.0,4.0,33,0.00,,---,0.00,VWS V14.01,2013-01-16 15:18:00,
2013-01-16 08:19:00,33.1,6.4,30.14,South,171,0.0,4.0,32,0.00,,---,0.00,VWS V14.01,2013-01-16 15:19:00,
2013-01-16 08:20:00,33.1,6.4,30.14,South,171,0.0,4.0,32,0.00,,---,0.00,VWS V14.01,2013-01-16 15:20:00,
2013-01-16 08:23:00,33.1,7.1,30.14,South,171,0.0,4.0,33,0.00,,---,0.00,VWS V14.01,2013-01-16 15:23:00,
2013-01-16 08:25:00,33.1,7.1,30.14,South,171,0.0,4.0,33,0.00,,---,0.00,VWS V14.01,2013-01-16 15:25:00,
2013-01-16 08:28:00,33.1,6.4,30.14,SSW,193,3.1,4.0,32,0.00,,---,0.00,VWS V14.01,2013-01-16 15:28:00,
2013-01-16 08:30:00,33.3,6.6,30.14,SSW,195,3.1,4.0,32,0.00,,---,0.00,VWS V14.01,2013-01-16 15:30:00,
2013-01-16 08:33:00,33.8,6.4,30.14,SSW,203,5.4,6.3,31,0.00,,---,0.00,VWS V14.01,2013-01-16 15:33:00,
2013-01-16 08:35:00,34.3,6.9,30.14,SSW,198,7.6,7.6,31,0.00,,---,0.00,VWS V14.01,2013-01-16 15:35:00,
2013-01-16 08:38:00,34.9,7.3,30.14,SSW,202,6.3,7.6,31,0.00,,---,0.00,VWS V14.01,2013-01-16 15:38:00,
2013-01-16 08:40:00,35.2,7.7,30.14,SSW,196,5.8,8.7,31,0.00,,---,0.00,VWS V14.01,2013-01-16 15:40:00,
2013-01-16 08:43:00,35.4,7.8,30.14,SSW,208,2.7,8.7,31,0.00,,---,0.00,VWS V14.01,2013-01-16 15:43:00,
2013-01-16 08:45:00,35.4,7.8,30.14,SSW,205,5.4,5.4,31,0.00,,---,0.00,VWS V14.01,2013-01-16 15:45:00,
2013-01-16 08:46:00,35.4,7.8,30.14,SSW,207,4.0,5.4,31,0.00,,---,0.00,VWS V14.01,2013-01-16 15:46:00,
2013-01-16 08:48:00,35.4,7.8,30.14,SSW,202,5.8,6.3,31,0.00,,---,0.00,VWS V14.01,2013-01-16 15:48:00,
2013-01-16 08:49:00,35.4,7.8,30.14,SSW,205,5.8,6.3,31,0.00,,---,0.00,VWS V14.01,2013-01-16 15:49:00,
2013-01-16 08:50:00,35.6,7.2,30.14,SSW,198,5.4,7.2,30,0.00,,---,0.00,VWS V14.01,2013-01-16 15:50:00,
2013-01-16 08:51:00,35.6,7.2,30.14,South,189,4.9,7.2,30,0.00,,---,0.00,VWS V14.01,2013-01-16 15:51:00,
2013-01-16 08:53:00,35.6,7.2,30.14,SSW,193,2.7,7.2,30,0.00,,---,0.00,VWS V14.01,2013-01-16 15:53:00,
2013-01-16 08:54:00,35.6,7.2,30.14,SSW,193,2.7,7.2,30,0.00,,---,0.00,VWS V14.01,2013-01-16 15:54:00,
2013-01-16 08:55:00,35.6,8.0,30.14,SSW,193,0.0,7.2,31,0.00,,---,0.00,VWS V14.01,2013-01-16 15:55:00,
2013-01-16 08:56:00,35.6,8.0,30.14,SSW,193,0.0,7.2,31,0.00,,---,0.00,VWS V14.01,2013-01-16 15:56:00,
2013-01-16 08:58:00,35.4,7.8,30.14,South,184,2.7,7.2,31,0.00,,---,0.00,VWS V14.01,2013-01-16 15:58:00,
2013-01-16 08:59:00,35.4,7.8,30.14,South,184,2.7,7.2,31,0.00,,---,0.00,VWS V14.01,2013-01-16 15:59:00,
2013-01-16 09:00:00,35.4,7.8,30.14,South,184,0.0,2.2,31,0.00,,---,0.00,VWS V14.01,2013-01-16 16:00:00,
2013-01-16 09:01:00,35.4,7.8,30.14,South,184,0.0,2.2,31,0.00,,---,0.00,VWS V14.01,2013-01-16 16:01:00,
2013-01-16 09:04:00,35.2,7.7,30.14,South,184,0.0,3.1,31,0.00,,---,0.00,VWS V14.01,2013-01-16 16:04:00,
2013-01-16 09:05:00,35.2,7.7,30.14,South,184,0.0,3.1,31,0.00,,---,0.00,VWS V14.01,2013-01-16 16:05:00,
2013-01-16 09:06:00,35.4,7.8,30.14,South,184,0.0,3.1,31,0.00,,---,0.00,VWS V14.01,2013-01-16 16:06:00,
2013-01-16 09:09:00,35.4,7.8,30.14,South,185,3.1,3.1,31,0.00,,---,0.00,VWS V14.01,2013-01-16 16:09:00,
2013-01-16 09:10:00,35.4,7.8,30.14,South,189,0.0,3.1,31,0.00,,---,0.00,VWS V14.01,2013-01-16 16:10:00,
2013-01-16 09:12:00,35.6,7.2,30.14,SSW,195,2.7,3.1,30,0.00,,---,0.00,VWS V14.01,2013-01-16 16:12:00,
2013-01-16 09:14:00,35.8,7.4,30.14,SSW,208,2.7,3.1,30,0.00,,---,0.00,VWS V14.01,2013-01-16 16:14:00,
2013-01-16 09:15:00,35.8,7.4,30.14,SW,224,2.2,3.1,30,0.00,,---,0.00,VWS V14.01,2013-01-16 16:15:00,
2013-01-16 09:16:00,36.0,8.3,30.14,WSW,241,3.6,3.6,31,0.00,,---,0.00,VWS V14.01,2013-01-16 16:16:00,
2013-01-16 09:17:00,36.0,8.3,30.14,WSW,241,0.0,3.6,31,0.00,,---,0.00,VWS V14.01,2013-01-16 16:17:00,
2013-01-16 09:20:00,35.6,8.0,30.14,WSW,254,2.7,3.6,31,0.00,,---,0.00,VWS V14.01,2013-01-16 16:20:00,
2013-01-16 09:21:00,35.6,8.0,30.14,WSW,257,0.0,3.6,31,0.00,,---,0.00,VWS V14.01,2013-01-16 16:21:00,
2013-01-16 09:22:00,35.4,7.8,30.14,SSE,157,2.2,4.0,31,0.00,,---,0.00,VWS V14.01,2013-01-16 16:22:00,
2013-01-16 09:25:00,35.6,8.0,30.14,SSE,150,3.6,4.9,31,0.00,,---,0.00,VWS V14.01,2013-01-16 16:25:00,
2013-01-16 09:26:00,35.4,7.8,30.14,SSW,202,4.0,5.4,31,0.00,,---,0.00,VWS V14.01,2013-01-16 16:26:00,
2013-01-16 09:27:00,35.6,7.2,30.14,NNW,327,3.1,5.4,30,0.00,,---,0.00,VWS V14.01,2013-01-16 16:27:00,
2013-01-16 09:30:00,35.8,7.4,30.14,NNE,32,5.8,5.8,30,0.00,,---,0.00,VWS V14.01,2013-01-16 16:30:00,
2013-01-16 09:31:00,36.0,7.6,30.14,NE,36,2.2,5.8,30,0.00,,---,0.00,VWS V14.01,2013-01-16 16:31:00,
2013-01-16 09:32:00,36.3,7.9,30.14,SSE,162,3.1,5.8,30,0.00,,---,0.00,VWS V14.01,2013-01-16 16:32:00,
2013-01-16 09:35:00,36.9,8.3,30.14,North,7,3.6,5.8,30,0.00,,---,0.00,VWS V14.01,2013-01-16 16:35:00,
2013-01-16 09:36:00,36.9,8.3,30.14,North,7,3.6,5.8,30,0.00,,---,0.00,VWS V14.01,2013-01-16 16:36:00,
2013-01-16 09:37:00,36.9,8.3,30.14,NE,42,4.9,5.8,30,0.00,,---,0.00,VWS V14.01,2013-01-16 16:37:00,
2013-01-16 09:40:00,36.9,9.1,30.14,South,186,3.6,5.8,31,0.00,,---,0.00,VWS V14.01,2013-01-16 16:40:00,
2013-01-16 09:41:00,36.9,9.1,30.14,North,3,5.8,5.8,31,0.00,,---,0.00,VWS V14.01,2013-01-16 16:41:00,
2013-01-16 09:42:00,36.7,8.2,30.14,NNE,23,2.2,8.1,30,0.00,,---,0.00,VWS V14.01,2013-01-16 16:42:00,
2013-01-16 09:46:00,37.2,8.6,30.14,North,11,0.0,3.6,30,0.00,,---,0.00,VWS V14.01,2013-01-16 16:46:00,
2013-01-16 09:47:00,37.2,8.6,30.14,North,11,0.0,3.6,30,0.00,,---,0.00,VWS V14.01,2013-01-16 16:47:00,
2013-01-16 09:52:00,37.6,9.0,30.14,South,177,0.0,3.6,30,0.00,,---,0.00,VWS V14.01,2013-01-16 16:52:00,
2013-01-16 09:53:00,37.6,9.0,30.14,South,175,2.7,3.6,30,0.00,,---,0.00,VWS V14.01,2013-01-16 16:53:00,
2013-01-16 09:57:00,37.4,8.8,30.14,SSE,165,2.7,3.6,30,0.00,,---,0.00,VWS V14.01,2013-01-16 16:57:00,
2013-01-16 09:58:00,37.4,9.5,30.14,SSE,165,0.0,3.6,31,0.00,,---,0.00,VWS V14.01,2013-01-16 16:58:00,
2013-01-16 10:02:00,37.2,9.4,30.14,SSW,209,4.5,4.5,31,0.00,,---,0.00,VWS V14.01,2013-01-16 17:02:00,
2013-01-16 10:03:00,37.2,9.4,30.14,SSW,207,3.1,4.5,31,0.00,,---,0.00,VWS V14.01,2013-01-16 17:03:00,
2013-01-16 10:07:00,37.0,9.2,30.14,ESE,104,3.1,4.5,31,0.00,,---,0.00,VWS V14.01,2013-01-16 17:07:00,
2013-01-16 10:08:00,37.0,9.2,30.14,ESE,104,2.2,4.5,31,0.00,,---,0.00,VWS V14.01,2013-01-16 17:08:00,
2013-01-16 10:12:00,37.2,9.4,30.14,ESE,120,2.7,4.5,31,0.00,,---,0.00,VWS V14.01,2013-01-16 17:12:00,
2013-01-16 10:13:00,37.4,8.8,30.14,East,97,2.7,4.5,30,0.00,,---,0.00,VWS V14.01,2013-01-16 17:13:00,
2013-01-16 10:17:00,37.9,9.3,30.14,SE,137,4.0,4.9,30,0.00,,---,0.00,VWS V14.01,2013-01-16 17:17:00,
2013-01-16 10:18:00,37.9,9.3,30.14,SSE,154,3.6,4.9,30,0.00,,---,0.00,VWS V14.01,2013-01-16 17:18:00,
2013-01-16 10:19:00,37.9,9.3,30.14,SSW,212,4.0,4.9,30,0.00,,---,0.00,VWS V14.01,2013-01-16 17:19:00,
2013-01-16 10:23:00,37.6,9.0,30.14,West,268,3.1,4.9,30,0.00,,---,0.00,VWS V14.01,2013-01-16 17:23:00,
2013-01-16 10:24:00,37.6,9.0,30.14,NW,317,2.2,4.9,30,0.00,,---,0.00,VWS V14.01,2013-01-16 17:24:00,
2013-01-16 10:28:00,37.6,9.0,30.14,NW,317,0.0,4.9,30,0.00,,---,0.00,VWS V14.01,2013-01-16 17:28:00,
2013-01-16 10:29:00,37.8,9.1,30.14,NW,317,2.2,4.9,30,0.00,,---,0.00,VWS V14.01,2013-01-16 17:29:00,
2013-01-16 10:33:00,37.8,9.1,30.14,NNW,332,4.0,4.0,30,0.00,,---,0.00,VWS V14.01,2013-01-16 17:33:00,
2013-01-16 10:34:00,37.8,9.1,30.14,NW,319,3.1,4.0,30,0.00,,---,0.00,VWS V14.01,2013-01-16 17:34:00,
2013-01-16 10:38:00,37.8,8.4,30.14,NNW,327,4.0,5.8,29,0.00,,---,0.00,VWS V14.01,2013-01-16 17:38:00,
2013-01-16 10:39:00,37.9,8.5,30.14,NNW,330,4.0,5.8,29,0.00,,---,0.00,VWS V14.01,2013-01-16 17:39:00,
2013-01-16 10:43:00,37.9,8.5,30.14,NW,322,2.7,5.8,29,0.00,,---,0.00,VWS V14.01,2013-01-16 17:43:00,
2013-01-16 10:44:00,37.9,8.5,30.14,NW,320,2.7,5.8,29,0.00,,---,0.00,VWS V14.01,2013-01-16 17:44:00,
2013-01-16 10:49:00,37.9,9.3,30.14,West,277,0.0,3.6,30,0.00,,---,0.00,VWS V14.01,2013-01-16 17:49:00,
2013-01-16 10:54:00,37.6,9.0,30.14,NW,315,3.1,3.6,30,0.00,,---,0.00,VWS V14.01,2013-01-16 17:54:00,
2013-01-16 10:55:00,37.8,9.1,30.14,NNW,329,0.0,3.6,30,0.00,,---,0.00,VWS V14.01,2013-01-16 17:55:00,
2013-01-16 10:59:00,37.9,9.3,30.14,South,185,2.7,3.6,30,0.00,,---,0.00,VWS V14.01,2013-01-16 17:59:00,
2013-01-16 11:00:00,37.9,10.0,30.14,SSW,198,2.7,3.6,31,0.00,,---,0.00,VWS V14.01,2013-01-16 18:00:00,
2013-01-16 11:04:00,37.9,9.3,30.14,SSW,202,0.0,5.4,30,0.00,,---,0.00,VWS V14.01,2013-01-16 18:04:00,
2013-01-16 11:05:00,37.9,9.3,30.14,SW,221,2.7,5.4,30,0.00,,---,0.00,VWS V14.01,2013-01-16 18:05:00,
2013-01-16 11:06:00,37.9,9.3,30.14,SW,232,2.7,5.4,30,0.00,,---,0.00,VWS V14.01,2013-01-16 18:06:00,
2013-01-16 11:10:00,38.1,9.4,30.14,NW,304,3.6,5.4,30,0.00,,---,0.00,VWS V14.01,2013-01-16 18:10:00,
2013-01-16 11:11:00,38.1,9.4,30.14,WSW,250,2.2,5.4,30,0.00,,---,0.00,VWS V14.01,2013-01-16 18:11:00,
2013-01-16 11:15:00,38.3,8.8,30.14,WNW,295,2.2,5.4,29,0.00,,---,0.00,VWS V14.01,2013-01-16 18:15:00,
2013-01-16 11:16:00,38.5,9.8,30.14,WNW,293,0.0,2.2,30,0.00,,---,0.00,VWS V14.01,2013-01-16 18:16:00,
2013-01-16 11:21:00,38.7,9.2,30.14,WNW,285,3.6,6.3,29,0.00,,---,0.00,VWS V14.01,2013-01-16 18:21:00,
2013-01-16 11:26:00,39.2,9.6,30.14,NW,316,2.7,6.3,29,0.00,,---,0.00,VWS V14.01,2013-01-16 18:26:00,
2013-01-16 11:31:00,39.6,9.9,30.14,NNW,334,0.0,4.0,29,0.00,,---,0.00,VWS V14.01,2013-01-16 18:31:00,
2013-01-16 11:32:00,39.7,10.1,30.14,SW,216,3.6,4.0,29,0.00,,---,0.00,VWS V14.01,2013-01-16 18:32:00,
2013-01-16 11:36:00,40.3,10.6,30.14,WNW,283,5.8,8.1,29,0.00,,---,0.00,VWS V14.01,2013-01-16 18:36:00,
2013-01-16 11:37:00,40.3,10.6,30.14,WNW,303,2.7,8.1,29,0.00,,---,0.00,VWS V14.01,2013-01-16 18:37:00,
2013-01-16 11:41:00,40.5,10.7,30.14,North,353,4.0,8.1,29,0.00,,---,0.00,VWS V14.01,2013-01-16 18:41:00,
2013-01-16 11:42:00,40.5,10.7,30.14,North,0,5.4,8.1,29,0.00,,---,0.00,VWS V14.01,2013-01-16 18:42:00,
2013-01-16 11:46:00,41.0,10.4,30.14,WNW,289,3.1,3.6,28,0.00,,---,0.00,VWS V14.01,2013-01-16 18:46:00,
2013-01-16 11:47:00,41.0,10.4,30.14,WNW,292,2.7,3.6,28,0.00,,---,0.00,VWS V14.01,2013-01-16 18:47:00,
2013-01-16 11:51:00,41.2,10.6,30.14,NNW,327,4.9,6.3,28,0.00,,---,0.00,VWS V14.01,2013-01-16 18:51:00,
2013-01-16 11:52:00,41.2,10.6,30.14,WNW,299,2.7,6.3,28,0.00,,---,0.00,VWS V14.01,2013-01-16 18:52:00,
2013-01-16 11:56:00,41.4,10.7,30.14,NNE,18,4.0,6.3,28,0.00,,---,0.00,VWS V14.01,2013-01-16 18:56:00,
2013-01-16 11:57:00,41.4,9.1,30.14,North,350,0.0,6.3,26,0.00,,---,0.00,VWS V14.01,2013-01-16 18:57:00,
2013-01-16 12:01:00,41.4,10.7,30.14,West,266,0.0,4.0,28,0.00,,---,0.00,VWS V14.01,2013-01-16 19:01:00,
2013-01-16 12:03:00,41.4,10.7,30.14,West,278,0.0,4.0,28,0.00,,---,0.00,VWS V14.01,2013-01-16 19:03:00,
2013-01-16 12:07:00,41.5,10.9,30.14,NW,315,5.8,5.8,28,0.00,,---,0.00,VWS V14.01,2013-01-16 19:07:00,
2013-01-16 12:08:00,41.5,10.9,30.14,West,278,0.0,5.8,28,0.00,,---,0.00,VWS V14.01,2013-01-16 19:08:00,
2013-01-16 12:12:00,41.4,10.7,30.14,SW,224,3.6,6.3,28,0.00,,---,0.00,VWS V14.01,2013-01-16 19:12:00,
2013-01-16 12:13:00,41.4,10.7,30.14,West,268,0.0,6.3,28,0.00,,---,0.00,VWS V14.01,2013-01-16 19:13:00,
2013-01-16 12:17:00,41.5,10.9,30.14,NNW,339,3.6,5.8,28,0.00,,---,0.00,VWS V14.01,2013-01-16 19:17:00,
2013-01-16 12:18:00,41.5,9.2,30.14,NW,305,5.4,5.8,26,0.00,,---,0.00,VWS V14.01,2013-01-16 19:18:00,
2013-01-16 12:22:00,41.9,11.2,30.14,WNW,294,3.1,5.8,28,0.00,,---,0.00,VWS V14.01,2013-01-16 19:22:00,
2013-01-16 12:23:00,41.9,11.2,30.14,SW,223,3.6,5.8,28,0.00,,---,0.00,VWS V14.01,2013-01-16 19:23:00,
2013-01-16 12:27:00,41.7,11.0,30.14,West,273,5.4,8.7,28,0.00,,---,0.00,VWS V14.01,2013-01-16 19:27:00,
2013-01-16 12:28:00,41.7,11.0,30.14,WNW,300,5.4,8.7,28,0.00,,---,0.00,VWS V14.01,2013-01-16 19:28:00,
2013-01-16 12:29:00,41.7,11.0,30.14,WNW,294,4.9,8.7,28,0.00,,---,0.00,VWS V14.01,2013-01-16 19:29:00,
2013-01-16 12:33:00,41.9,11.2,30.14,NNW,327,3.1,5.4,28,0.00,,---,0.00,VWS V14.01,2013-01-16 19:33:00,
2013-01-16 12:34:00,41.9,11.2,30.14,WNW,297,4.9,5.4,28,0.00,,---,0.00,VWS V14.01,2013-01-16 19:34:00,
2013-01-16 12:38:00,42.1,11.3,30.14,SW,236,4.9,6.3,28,0.00,,---,0.00,VWS V14.01,2013-01-16 19:38:00,
2013-01-16 12:39:00,42.3,11.5,30.14,West,273,2.7,6.3,28,0.00,,---,0.00,VWS V14.01,2013-01-16 19:39:00,
2013-01-16 12:43:00,42.4,11.7,30.14,NW,312,3.1,6.3,28,0.00,,---,0.00,VWS V14.01,2013-01-16 19:43:00,
2013-01-16 12:44:00,42.4,11.7,30.14,NW,306,5.4,6.3,28,0.00,,---,0.00,VWS V14.01,2013-01-16 19:44:00,
2013-01-16 12:49:00,42.3,11.5,30.14,WNW,294,4.0,7.6,28,0.00,,---,0.00,VWS V14.01,2013-01-16 19:49:00,
2013-01-16 12:54:00,41.7,11.0,30.14,WSW,237,7.6,7.6,28,0.00,,---,0.00,VWS V14.01,2013-01-16 19:54:00,
2013-01-16 12:55:00,41.5,10.9,30.14,WNW,292,3.6,7.6,28,0.00,,---,0.00,VWS V14.01,2013-01-16 19:55:00,
2013-01-16 12:59:00,41.2,10.6,30.14,WNW,290,2.7,7.6,28,0.00,,---,0.00,VWS V14.01,2013-01-16 19:59:00,
2013-01-16 13:00:00,41.2,10.6,30.14,West,273,3.1,4.0,28,0.00,,---,0.00,VWS V14.01,2013-01-16 20:00:00,
2013-01-16 13:04:00,41.2,10.6,30.14,WNW,284,2.7,5.4,28,0.00,,---,0.00,VWS V14.01,2013-01-16 20:04:00,
2013-01-16 13:05:00,41.2,10.6,30.14,WNW,301,3.1,5.4,28,0.00,,---,0.00,VWS V14.01,2013-01-16 20:05:00,
2013-01-16 13:09:00,41.2,10.6,30.14,NW,307,3.1,5.4,28,0.00,,---,0.00,VWS V14.01,2013-01-16 20:09:00,
2013-01-16 13:10:00,41.2,10.6,30.14,NW,310,4.0,5.4,28,0.00,,---,0.00,VWS V14.01,2013-01-16 20:10:00,
2013-01-16 13:14:00,41.4,10.7,30.14,WNW,302,4.0,5.4,28,0.00,,---,0.00,VWS V14.01,2013-01-16 20:14:00,
2013-01-16 13:15:00,41.2,10.6,30.14,WNW,283,3.6,3.6,28,0.00,,---,0.00,VWS V14.01,2013-01-16 20:15:00,
2013-01-16 13:19:00,41.4,10.7,30.14,WNW,294,2.2,4.0,28,0.00,,---,0.00,VWS V14.01,2013-01-16 20:19:00,
2013-01-16 13:20:00,41.4,10.7,30.14,WNW,294,3.1,4.0,28,0.00,,---,0.00,VWS V14.01,2013-01-16 20:20:00,
2013-01-16 13:24:00,41.4,10.7,30.14,NW,307,2.7,4.0,28,0.00,,---,0.00,VWS V14.01,2013-01-16 20:24:00,
2013-01-16 13:25:00,41.4,10.7,30.14,NW,304,0.0,4.0,28,0.00,,---,0.00,VWS V14.01,2013-01-16 20:25:00,
2013-01-16 13:29:00,41.4,10.7,30.14,NW,322,2.7,4.0,28,0.00,,---,0.00,VWS V14.01,2013-01-16 20:29:00,
2013-01-16 13:30:00,41.4,10.7,30.14,NW,324,2.7,4.0,28,0.00,,---,0.00,VWS V14.01,2013-01-16 20:30:00,
2013-01-16 13:34:00,41.4,10.7,30.14,WNW,301,2.2,5.4,28,0.00,,---,0.00,VWS V14.01,2013-01-16 20:34:00,
2013-01-16 13:35:00,41.4,10.7,30.14,WNW,301,2.2,5.4,28,0.00,,---,0.00,VWS V14.01,2013-01-16 20:35:00,
2013-01-16 13:40:00,41.2,10.6,30.14,WSW,238,3.1,8.1,28,0.00,,---,0.00,VWS V14.01,2013-01-16 20:40:00,
2013-01-16 13:41:00,41.2,10.6,30.14,West,272,2.2,8.1,28,0.00,,---,0.00,VWS V14.01,2013-01-16 20:41:00,
2013-01-16 13:45:00,41.0,10.4,30.14,West,259,2.7,8.1,28,0.00,,---,0.00,VWS V14.01,2013-01-16 20:45:00,
2013-01-16 13:46:00,41.0,10.4,30.14,South,190,3.6,5.4,28,0.00,,---,0.00,VWS V14.01,2013-01-16 20:46:00,
2013-01-16 13:50:00,40.8,10.2,30.14,West,268,2.2,5.4,28,0.00,,---,0.00,VWS V14.01,2013-01-16 20:50:00,
2013-01-16 13:51:00,41.0,10.4,30.14,West,270,2.2,5.4,28,0.00,,---,0.00,VWS V14.01,2013-01-16 20:51:00,
2013-01-16 13:55:00,41.2,10.6,30.14,WSW,250,3.6,5.4,28,0.00,,---,0.00,VWS V14.01,2013-01-16 20:55:00,
2013-01-16 13:56:00,41.2,10.6,30.14,SW,218,2.7,5.4,28,0.00,,---,0.00,VWS V14.01,2013-01-16 20:56:00,
2013-01-16 13:57:00,41.2,10.6,30.14,SW,230,4.9,5.4,28,0.00,,---,0.00,VWS V14.01,2013-01-16 20:57:00,
2013-01-16 14:00:00,41.4,10.7,30.14,West,281,4.0,4.0,28,0.00,,---,0.00,VWS V14.01,2013-01-16 21:00:00,
2013-01-16 14:01:00,41.4,10.7,30.14,West,270,3.1,4.0,28,0.00,,---,0.00,VWS V14.01,2013-01-16 21:01:00,
2013-01-16 14:02:00,41.4,10.7,30.14,West,264,2.7,4.9,28,0.00,,---,0.00,VWS V14.01,2013-01-16 21:02:00,
2013-01-16 14:05:00,41.4,10.7,30.14,SSW,205,3.1,5.4,28,0.00,,---,0.00,VWS V14.01,2013-01-16 21:05:00,
2013-01-16 14:06:00,41.4,10.7,30.14,West,281,7.6,7.6,28,0.00,,---,0.00,VWS V14.01,2013-01-16 21:06:00,
2013-01-16 14:07:00,41.2,10.6,30.14,West,277,7.6,7.6,28,0.00,,---,0.00,VWS V14.01,2013-01-16 21:07:00,
2013-01-16 14:11:00,41.2,10.6,30.14,WNW,286,2.7,7.6,28,0.00,,---,0.00,VWS V14.01,2013-01-16 21:11:00,
2013-01-16 14:12:00,41.2,10.6,30.14,WNW,285,3.1,7.6,28,0.00,,---,0.00,VWS V14.01,2013-01-16 21:12:00,
2013-01-16 14:16:00,41.5,10.9,30.14,SW,222,3.1,4.5,28,0.00,,---,0.00,VWS V14.01,2013-01-16 21:16:00,
2013-01-16 14:17:00,41.5,10.9,30.14,West,278,3.6,4.5,28,0.00,,---,0.00,VWS V14.01,2013-01-16 21:17:00,
2013-01-16 14:21:00,41.5,10.9,30.14,WSW,247,0.0,5.8,28,0.00,,---,0.00,VWS V14.01,2013-01-16 21:21:00,
2013-01-16 14:22:00,41.5,10.9,30.14,SSW,204,3.1,5.8,28,0.00,,---,0.00,VWS V14.01,2013-01-16 21:22:00,
2013-01-16 14:26:00,41.7,11.0,30.14,WNW,290,4.0,5.8,28,0.00,,---,0.00,VWS V14.01,2013-01-16 21:26:00,
2013-01-16 14:27:00,41.7,11.0,30.14,West,271,4.0,5.8,28,0.00,,---,0.00,VWS V14.01,2013-01-16 21:27:00,
2013-01-16 14:31:00,42.1,12.1,30.14,SW,221,2.2,4.0,29,0.00,,---,0.00,VWS V14.01,2013-01-16 21:31:00,
2013-01-16 14:32:00,41.9,11.2,30.14,SW,233,0.0,4.0,28,0.00,,---,0.00,VWS V14.01,2013-01-16 21:32:00,
2013-01-16 14:33:00,41.7,11.0,30.14,SW,235,2.7,4.0,28,0.00,,---,0.00,VWS V14.01,2013-01-16 21:33:00,
2013-01-16 14:36:00,41.5,11.7,30.14,West,260,4.0,5.4,29,0.00,,---,0.00,VWS V14.01,2013-01-16 21:36:00,
2013-01-16 14:37:00,41.5,11.7,30.14,SSW,199,4.0,5.4,29,0.00,,---,0.00,VWS V14.01,2013-01-16 21:37:00,
2013-01-16 14:38:00,41.5,10.9,30.14,SW,221,6.3,6.7,28,0.00,,---,0.00,VWS V14.01,2013-01-16 21:38:00,
2013-01-16 14:41:00,41.4,10.7,30.14,WSW,246,2.7,6.7,28,0.00,,---,0.00,VWS V14.01,2013-01-16 21:41:00,
2013-01-16 14:42:00,41.4,10.7,30.14,West,279,4.0,6.7,28,0.00,,---,0.00,VWS V14.01,2013-01-16 21:42:00,
2013-01-16 14:43:00,41.4,11.5,30.14,SW,223,4.9,6.7,29,0.00,,---,0.00,VWS V14.01,2013-01-16 21:43:00,
2013-01-16 14:46:00,41.2,11.4,30.14,West,270,5.8,7.6,29,0.00,,---,0.00,VWS V14.01,2013-01-16 21:46:00,
2013-01-16 14:47:00,41.2,10.6,30.14,West,270,5.8,7.6,28,0.00,,---,0.00,VWS V14.01,2013-01-16 21:47:00,
2013-01-16 14:48:00,41.2,11.4,30.14,SW,223,4.9,8.1,29,0.00,,---,0.00,VWS V14.01,2013-01-16 21:48:00,
2013-01-16 14:51:00,41.5,11.7,30.14,SSW,213,5.4,10.1,29,0.00,,---,0.00,VWS V14.01,2013-01-16 21:51:00,
2013-01-16 14:52:00,41.5,10.9,30.14,SSW,203,7.6,10.1,28,0.00,,---,0.00,VWS V14.01,2013-01-16 21:52:00,
2013-01-16 14:53:00,41.5,10.9,30.14,SW,219,6.3,10.1,28,0.00,,---,0.00,VWS V14.01,2013-01-16 21:53:00,
2013-01-16 14:56:00,41.5,11.7,30.14,SW,216,6.3,10.1,29,0.00,,---,0.00,VWS V14.01,2013-01-16 21:56:00,
2013-01-16 14:57:00,41.5,11.7,30.14,SSW,202,5.8,10.1,29,0.00,,---,0.00,VWS V14.01,2013-01-16 21:57:00,
2013-01-16 14:58:00,41.5,11.7,30.14,SW,223,4.9,10.1,29,0.00,,---,0.00,VWS V14.01,2013-01-16 21:58:00,
2013-01-16 14:59:00,41.5,11.7,30.14,West,275,5.4,10.1,29,0.00,,---,0.00,VWS V14.01,2013-01-16 21:59:00,
2013-01-16 15:02:00,41.4,11.5,30.14,WSW,256,3.6,5.4,29,0.00,,---,0.00,VWS V14.01,2013-01-16 22:02:00,
2013-01-16 15:03:00,41.2,11.4,30.14,SW,236,3.6,5.4,29,0.00,,---,0.00,VWS V14.01,2013-01-16 22:03:00,
2013-01-16 15:04:00,41.2,11.4,30.14,SSW,213,5.8,7.6,29,0.00,,---,0.00,VWS V14.01,2013-01-16 22:04:00,
2013-01-16 15:07:00,41.2,11.4,30.14,SW,236,5.8,7.6,29,0.00,,---,0.00,VWS V14.01,2013-01-16 22:07:00,
2013-01-16 15:08:00,41.0,11.2,30.14,SW,217,4.9,7.6,29,0.00,,---,0.00,VWS V14.01,2013-01-16 22:08:00,
2013-01-16 15:09:00,41.0,11.2,30.14,SW,220,3.1,7.6,29,0.00,,---,0.00,VWS V14.01,2013-01-16 22:09:00,
2013-01-16 15:12:00,41.0,11.2,30.14,WSW,253,5.4,8.1,29,0.00,,---,0.00,VWS V14.01,2013-01-16 22:12:00,
2013-01-16 15:13:00,41.0,11.2,30.17,WNW,287,3.6,8.1,29,0.00,,---,0.00,VWS V14.01,2013-01-16 22:13:00,
2013-01-16 15:14:00,41.0,11.2,30.17,West,260,4.9,8.1,29,0.00,,---,0.00,VWS V14.01,2013-01-16 22:14:00,
2013-01-16 15:17:00,41.0,11.2,30.17,WSW,252,4.0,5.8,29,0.00,,---,0.00,VWS V14.01,2013-01-16 22:17:00,
2013-01-16 15:18:00,41.0,11.2,30.17,West,262,3.1,5.8,29,0.00,,---,0.00,VWS V14.01,2013-01-16 22:18:00,
2013-01-16 15:20:00,41.0,11.2,30.17,WSW,241,3.1,5.8,29,0.00,,---,0.00,VWS V14.01,2013-01-16 22:20:00,
2013-01-16 15:22:00,41.0,11.2,30.17,WSW,251,3.1,5.8,29,0.00,,---,0.00,VWS V14.01,2013-01-16 22:22:00,
2013-01-16 15:23:00,41.0,11.2,30.17,West,271,4.9,6.3,29,0.00,,---,0.00,VWS V14.01,2013-01-16 22:23:00,
2013-01-16 15:25:00,40.8,11.0,30.17,WSW,258,4.9,6.3,29,0.00,,---,0.00,VWS V14.01,2013-01-16 22:25:00,
2013-01-16 15:27:00,40.6,10.9,30.17,SW,233,4.9,6.3,29,0.00,,---,0.00,VWS V14.01,2013-01-16 22:27:00,
2013-01-16 15:29:00,40.5,10.7,30.17,WSW,242,5.8,6.3,29,0.00,,---,0.00,VWS V14.01,2013-01-16 22:29:00,
2013-01-16 15:30:00,40.5,10.7,30.17,SW,229,7.6,7.6,29,0.00,,---,0.00,VWS V14.01,2013-01-16 22:30:00,
2013-01-16 15:32:00,40.6,10.9,30.17,SSW,202,8.3,8.3,29,0.00,,---,0.00,VWS V14.01,2013-01-16 22:32:00,
2013-01-16 15:34:00,40.6,10.9,30.17,WSW,254,4.0,8.3,29,0.00,,---,0.00,VWS V14.01,2013-01-16 22:34:00,
2013-01-16 15:35:00,40.6,10.9,30.17,SSW,207,4.0,8.3,29,0.00,,---,0.00,VWS V14.01,2013-01-16 22:35:00,
2013-01-16 15:37:00,40.8,11.0,30.17,SW,234,4.0,8.3,29,0.00,,---,0.00,VWS V14.01,2013-01-16 22:37:00,
2013-01-16 15:38:00,40.6,10.9,30.17,West,278,4.9,8.3,29,0.00,,---,0.00,VWS V14.01,2013-01-16 22:38:00,
2013-01-16 15:39:00,40.8,11.0,30.17,SW,220,2.7,8.3,29,0.00,,---,0.00,VWS V14.01,2013-01-16 22:39:00,
2013-01-16 15:40:00,40.6,11.6,30.17,WSW,258,3.6,8.3,30,0.00,,---,0.00,VWS V14.01,2013-01-16 22:40:00,
2013-01-16 15:43:00,40.6,10.9,30.17,SSW,212,8.1,9.6,29,0.00,,---,0.00,VWS V14.01,2013-01-16 22:43:00,
2013-01-16 15:44:00,40.8,11.0,30.17,West,263,6.3,9.6,29,0.00,,---,0.00,VWS V14.01,2013-01-16 22:44:00,
2013-01-16 15:45:00,40.8,11.0,30.17,SSW,206,4.0,6.3,29,0.00,,---,0.00,VWS V14.01,2013-01-16 22:45:00,
2013-01-16 15:48:00,41.0,11.2,30.17,West,260,4.9,6.3,29,0.00,,---,0.00,VWS V14.01,2013-01-16 22:48:00,
2013-01-16 15:49:00,40.8,11.0,30.17,West,271,4.9,6.3,29,0.00,,---,0.00,VWS V14.01,2013-01-16 22:49:00,
2013-01-16 15:51:00,40.6,11.6,30.17,West,259,8.1,8.1,30,0.00,,---,0.00,VWS V14.01,2013-01-16 22:51:00,
2013-01-16 15:53:00,40.6,10.9,30.17,WNW,299,6.3,8.3,29,0.00,,---,0.00,VWS V14.01,2013-01-16 22:53:00,
2013-01-16 15:55:00,40.5,10.7,30.17,West,261,4.0,8.3,29,0.00,,---,0.00,VWS V14.01,2013-01-16 22:55:00,
2013-01-16 15:56:00,40.5,10.7,30.17,WNW,292,5.4,8.3,29,0.00,,---,0.00,VWS V14.01,2013-01-16 22:56:00,
2013-01-16 15:58:00,40.6,11.6,30.17,West,279,5.4,8.3,30,0.00,,---,0.00,VWS V14.01,2013-01-16 22:58:00,
2013-01-16 16:01:00,40.5,11.5,30.17,WSW,239,4.5,7.2,30,0.00,,---,0.00,VWS V14.01,2013-01-16 23:01:00,
2013-01-16 16:03:00,40.3,11.3,30.17,SW,231,5.8,8.3,30,0.00,,---,0.00,VWS V14.01,2013-01-16 23:03:00,
2013-01-16 16:06:00,40.1,11.2,30.17,SSW,212,5.8,8.3,30,0.00,,---,0.00,VWS V14.01,2013-01-16 23:06:00,
2013-01-16 16:08:00,40.1,11.2,30.17,WSW,240,3.6,8.3,30,0.00,,---,0.00,VWS V14.01,2013-01-16 23:08:00,
2013-01-16 16:11:00,39.9,11.0,30.17,West,279,6.3,8.3,30,0.00,,---,0.00,VWS V14.01,2013-01-16 23:11:00,
2013-01-16 16:13:00,39.9,11.0,30.17,WSW,254,4.0,8.3,30,0.00,,---,0.00,VWS V14.01,2013-01-16 23:13:00,
2013-01-16 16:14:00,39.9,11.0,30.17,WSW,239,5.4,8.3,30,0.00,,---,0.00,VWS V14.01,2013-01-16 23:14:00,
2013-01-16 16:16:00,39.7,10.9,30.17,WSW,257,3.6,5.8,30,0.00,,---,0.00,VWS V14.01,2013-01-16 23:16:00,
2013-01-16 16:19:00,39.7,10.9,30.17,WSW,237,5.8,5.8,30,0.00,,---,0.00,VWS V14.01,2013-01-16 23:19:00,
2013-01-16 16:21:00,39.7,10.9,30.17,SSW,211,5.8,5.8,30,0.00,,---,0.00,VWS V14.01,2013-01-16 23:21:00,
2013-01-16 16:22:00,39.7,10.9,30.17,West,267,5.4,8.7,30,0.00,,---,0.00,VWS V14.01,2013-01-16 23:22:00,
2013-01-16 16:24:00,39.7,10.9,30.17,SW,234,6.3,8.7,30,0.00,,---,0.00,VWS V14.01,2013-01-16 23:24:00,
2013-01-16 16:26:00,39.7,10.9,30.17,SW,227,5.8,8.7,30,0.00,,---,0.00,VWS V14.01,2013-01-16 23:26:00,
2013-01-16 16:27:00,39.7,10.9,30.17,SSW,203,5.4,8.7,30,0.00,,---,0.00,VWS V14.01,2013-01-16 23:27:00,
2013-01-16 16:29:00,39.6,10.7,30.17,WSW,240,3.1,8.7,30,0.00,,---,0.00,VWS V14.01,2013-01-16 23:29:00,
2013-01-16 16:30:00,39.6,10.7,30.17,SW,229,4.0,8.7,30,0.00,,---,0.00,VWS V14.01,2013-01-16 23:30:00,
2013-01-16 16:31:00,39.4,10.5,30.17,WSW,244,4.0,5.4,30,0.00,,---,0.00,VWS V14.01,2013-01-16 23:31:00,
2013-01-16 16:32:00,39.4,10.5,30.17,West,271,4.9,5.8,30,0.00,,---,0.00,VWS V14.01,2013-01-16 23:32:00,
2013-01-16 16:34:00,39.4,10.5,30.17,WSW,243,3.1,5.8,30,0.00,,---,0.00,VWS V14.01,2013-01-16 23:34:00,
2013-01-16 16:35:00,39.4,10.5,30.17,SW,215,4.0,5.8,30,0.00,,---,0.00,VWS V14.01,2013-01-16 23:35:00,
2013-01-16 16:36:00,39.4,10.5,30.17,SW,216,7.6,7.6,30,0.00,,---,0.00,VWS V14.01,2013-01-16 23:36:00,
2013-01-16 16:37:00,39.4,10.5,30.17,SSW,211,5.8,7.6,30,0.00,,---,0.00,VWS V14.01,2013-01-16 23:37:00,
2013-01-16 16:39:00,39.6,10.7,30.17,West,268,3.6,7.6,30,0.00,,---,0.00,VWS V14.01,2013-01-16 23:39:00,
2013-01-16 16:40:00,39.6,10.7,30.17,WSW,237,6.3,7.6,30,0.00,,---,0.00,VWS V14.01,2013-01-16 23:40:00,
2013-01-16 16:41:00,39.7,10.9,30.17,WSW,256,4.0,7.6,30,0.00,,---,0.00,VWS V14.01,2013-01-16 23:41:00,
2013-01-16 16:42:00,39.7,10.9,30.17,WSW,252,4.5,7.6,30,0.00,,---,0.00,VWS V14.01,2013-01-16 23:42:00,
2013-01-16 16:44:00,39.7,10.9,30.17,SSW,203,3.6,7.6,30,0.00,,---,0.00,VWS V14.01,2013-01-16 23:44:00,
2013-01-16 16:45:00,39.7,10.9,30.17,SW,231,2.7,5.8,30,0.00,,---,0.00,VWS V14.01,2013-01-16 23:45:00,
2013-01-16 16:46:00,39.7,10.9,30.17,West,264,4.5,6.3,30,0.00,,---,0.00,VWS V14.01,2013-01-16 23:46:00,
2013-01-16 16:47:00,39.7,10.9,30.17,West,267,4.9,6.3,30,0.00,,---,0.00,VWS V14.01,2013-01-16 23:47:00,
2013-01-16 16:49:00,39.7,10.9,30.17,West,263,6.3,6.3,30,0.00,,---,0.00,VWS V14.01,2013-01-16 23:49:00,
2013-01-16 16:50:00,39.7,10.9,30.17,West,265,4.0,6.3,30,0.00,,---,0.00,VWS V14.01,2013-01-16 23:50:00,
2013-01-16 16:52:00,39.7,10.9,30.17,SW,223,5.8,6.3,30,0.00,,---,0.00,VWS V14.01,2013-01-16 23:52:00,
2013-01-16 16:53:00,39.6,10.7,30.17,WSW,258,4.0,6.3,30,0.00,,---,0.00,VWS V14.01,2013-01-16 23:53:00,
2013-01-16 16:54:00,39.6,10.7,30.17,SSW,212,5.8,6.3,30,0.00,,---,0.00,VWS V14.01,2013-01-16 23:54:00,
2013-01-16 16:55:00,39.6,10.7,30.17,West,262,5.4,8.7,30,0.00,,---,0.00,VWS V14.01,2013-01-16 23:55:00,
2013-01-16 16:57:00,39.6,10.7,30.17,West,278,5.8,8.7,30,0.00,,---,0.00,VWS V14.01,2013-01-16 23:57:00,
2013-01-16 16:58:00,39.6,10.7,30.17,NW,313,5.8,8.7,30,0.00,,---,0.00,VWS V14.01,2013-01-16 23:58:00,
2013-01-16 16:59:00,39.6,10.7,30.17,WNW,284,3.6,8.7,30,0.00,,---,0.00,VWS V14.01,2013-01-16 23:59:00,
2013-01-16 17:00:00,39.6,10.7,30.17,WNW,287,5.8,6.3,30,0.00,,---,0.00,VWS V14.01,2013-01-17 00:00:00,
2013-01-16 17:02:00,39.6,10.7,30.17,SW,220,7.2,7.6,30,0.00,,---,0.00,VWS V14.01,2013-01-17 00:02:00,
2013-01-16 17:03:00,39.4,10.5,30.17,WNW,297,3.6,8.7,30,0.00,,---,0.00,VWS V14.01,2013-01-17 00:03:00,
2013-01-16 17:04:00,39.6,10.7,30.17,WSW,245,5.4,8.7,30,0.00,,---,0.00,VWS V14.01,2013-01-17 00:04:00,
2013-01-16 17:05:00,39.4,10.5,30.17,West,276,4.9,8.7,30,0.00,,---,0.00,VWS V14.01,2013-01-17 00:05:00,
2013-01-16 17:07:00,39.4,10.5,30.17,WSW,240,2.7,8.7,30,0.00,,---,0.00,VWS V14.01,2013-01-17 00:07:00,
2013-01-16 17:08:00,39.4,10.5,30.17,West,273,6.3,8.7,30,0.00,,---,0.00,VWS V14.01,2013-01-17 00:08:00,
2013-01-16 17:10:00,39.4,10.5,30.17,West,270,4.0,9.6,30,0.00,,---,0.00,VWS V14.01,2013-01-17 00:10:00,
2013-01-16 17:11:00,39.4,10.5,30.17,West,277,4.0,9.6,30,0.00,,---,0.00,VWS V14.01,2013-01-17 00:11:00,
2013-01-16 17:12:00,39.2,10.4,30.17,SSW,212,4.0,9.6,30,0.00,,---,0.00,VWS V14.01,2013-01-17 00:12:00,
2013-01-16 17:13:00,39.4,10.5,30.17,WNW,289,3.1,9.6,30,0.00,,---,0.00,VWS V14.01,2013-01-17 00:13:00,
2013-01-16 17:15:00,39.2,10.4,30.17,SSW,208,3.6,3.6,30,0.00,,---,0.00,VWS V14.01,2013-01-17 00:15:00,
2013-01-16 17:16:00,39.2,10.4,30.17,SW,236,3.6,3.6,30,0.00,,---,0.00,VWS V14.01,2013-01-17 00:16:00,
2013-01-16 17:17:00,39.0,10.2,30.17,WNW,299,5.4,5.4,30,0.00,,---,0.00,VWS V14.01,2013-01-17 00:17:00,
2013-01-16 17:18:00,38.8,10.1,30.17,West,281,3.6,5.8,30,0.00,,---,0.00,VWS V14.01,2013-01-17 00:18:00,
2013-01-16 17:20:00,39.0,10.2,30.17,West,278,5.8,6.3,30,0.00,,---,0.00,VWS V14.01,2013-01-17 00:20:00,
2013-01-16 17:22:00,39.0,10.2,30.17,West,279,3.6,6.3,30,0.00,,---,0.00,VWS V14.01,2013-01-17 00:22:00,
2013-01-16 17:23:00,39.0,10.2,30.17,West,281,3.1,6.3,30,0.00,,---,0.00,VWS V14.01,2013-01-17 00:23:00,
2013-01-16 17:25:00,39.0,10.2,30.17,NW,325,3.1,6.3,30,0.00,,---,0.00,VWS V14.01,2013-01-17 00:25:00,
2013-01-16 17:27:00,38.8,10.1,30.17,WNW,284,4.0,6.3,30,0.00,,---,0.00,VWS V14.01,2013-01-17 00:27:00,
2013-01-16 17:28:00,38.8,10.8,30.17,WNW,293,4.0,6.3,31,0.00,,---,0.00,VWS V14.01,2013-01-17 00:28:00,
2013-01-16 17:30:00,38.7,9.9,30.17,West,280,4.9,4.9,30,0.00,,---,0.00,VWS V14.01,2013-01-17 00:30:00,
2013-01-16 17:32:00,38.7,9.9,30.17,WNW,284,8.1,8.1,30,0.00,,---,0.00,VWS V14.01,2013-01-17 00:32:00,
2013-01-16 17:34:00,38.7,9.9,30.17,West,276,2.7,8.1,30,0.00,,---,0.00,VWS V14.01,2013-01-17 00:34:00,
2013-01-16 17:35:00,38.7,9.9,30.17,WNW,297,5.8,8.1,30,0.00,,---,0.00,VWS V14.01,2013-01-17 00:35:00,
2013-01-16 17:37:00,38.8,10.1,30.17,WNW,298,6.3,8.1,30,0.00,,---,0.00,VWS V14.01,2013-01-17 00:37:00,
2013-01-16 17:39:00,38.8,10.8,30.17,WNW,302,6.3,8.1,31,0.00,,---,0.00,VWS V14.01,2013-01-17 00:39:00,
2013-01-16 17:41:00,38.8,10.8,30.17,WNW,283,6.3,8.1,31,0.00,,---,0.00,VWS V14.01,2013-01-17 00:41:00,
2013-01-16 17:42:00,38.8,10.1,30.17,West,259,4.0,8.1,30,0.00,,---,0.00,VWS V14.01,2013-01-17 00:42:00,
2013-01-16 17:43:00,38.8,10.1,30.17,WNW,290,2.7,8.1,30,0.00,,---,0.00,VWS V14.01,2013-01-17 00:43:00,
2013-01-16 17:44:00,38.8,10.8,30.17,WSW,253,4.9,8.1,31,0.00,,---,0.00,VWS V14.01,2013-01-17 00:44:00,
2013-01-16 17:46:00,38.8,10.8,30.17,WNW,284,3.6,4.9,31,0.00,,---,0.00,VWS V14.01,2013-01-17 00:46:00,
2013-01-16 17:47:00,38.7,9.9,30.17,West,281,5.4,5.4,30,0.00,,---,0.00,VWS V14.01,2013-01-17 00:47:00,
2013-01-16 17:48:00,38.7,10.6,30.17,West,280,3.1,5.4,31,0.00,,---,0.00,VWS V14.01,2013-01-17 00:48:00,
2013-01-16 17:49:00,38.7,10.6,30.17,West,268,3.6,5.8,31,0.00,,---,0.00,VWS V14.01,2013-01-17 00:49:00,
2013-01-16 17:51:00,38.5,10.5,30.17,WNW,284,4.9,5.8,31,0.00,,---,0.00,VWS V14.01,2013-01-17 00:51:00,
2013-01-16 17:52:00,38.5,10.5,30.17,WNW,292,5.4,5.8,31,0.00,,---,0.00,VWS V14.01,2013-01-17 00:52:00,
2013-01-16 17:53:00,38.3,10.3,30.17,WNW,286,3.1,5.8,31,0.00,,---,0.00,VWS V14.01,2013-01-17 00:53:00,
2013-01-16 17:54:00,38.3,10.3,30.17,West,279,3.1,5.8,31,0.00,,---,0.00,VWS V14.01,2013-01-17 00:54:00,
2013-01-16 17:56:00,38.3,10.3,30.17,West,275,3.6,5.8,31,0.00,,---,0.00,VWS V14.01,2013-01-17 00:56:00,
2013-01-16 17:57:00,38.1,10.2,30.17,WNW,284,3.6,5.8,31,0.00,,---,0.00,VWS V14.01,2013-01-17 00:57:00,
2013-01-16 17:58:00,38.1,10.2,30.17,West,273,4.0,5.8,31,0.00,,---,0.00,VWS V14.01,2013-01-17 00:58:00,
2013-01-16 17:59:00,38.1,10.2,30.17,WSW,242,6.3,6.3,31,0.00,,---,0.00,VWS V14.01,2013-01-17 00:59:00,
2013-01-16 18:01:00,37.9,10.0,30.17,NNW,335,5.8,5.8,31,0.00,,---,0.00,VWS V14.01,2013-01-17 01:01:00,
2013-01-16 18:02:00,37.9,10.0,30.17,NNW,335,5.8,5.8,31,0.00,,---,0.00,VWS V14.01,2013-01-17 01:02:00,
2013-01-16 18:03:00,37.9,10.0,30.17,WNW,291,5.4,6.3,31,0.00,,---,0.00,VWS V14.01,2013-01-17 01:03:00,
2013-01-16 18:04:00,37.9,10.0,30.17,WSW,255,6.3,6.7,31,0.00,,---,0.00,VWS V14.01,2013-01-17 01:04:00,
2013-01-16 18:06:00,38.1,10.2,30.17,WNW,291,5.4,7.6,31,0.00,,---,0.00,VWS V14.01,2013-01-17 01:06:00,
2013-01-16 18:07:00,38.1,10.2,30.17,West,270,5.8,7.6,31,0.00,,---,0.00,VWS V14.01,2013-01-17 01:07:00,
2013-01-16 18:08:00,38.1,10.2,30.17,WSW,258,5.4,7.6,31,0.00,,---,0.00,VWS V14.01,2013-01-17 01:08:00,
2013-01-16 18:09:00,38.1,10.2,30.17,West,266,5.4,7.6,31,0.00,,---,0.00,VWS V14.01,2013-01-17 01:09:00,
2013-01-16 18:12:00,38.1,10.2,30.17,WNW,297,3.1,8.1,31,0.00,,---,0.00,VWS V14.01,2013-01-17 01:12:00,
2013-01-16 18:13:00,38.1,10.2,30.20,SSW,202,4.0,8.1,31,0.00,,---,0.00,VWS V14.01,2013-01-17 01:13:00,
2013-01-16 18:14:00,38.1,10.2,30.20,West,275,5.8,8.1,31,0.00,,---,0.00,VWS V14.01,2013-01-17 01:14:00,
2013-01-16 18:17:00,38.3,10.3,30.20,WNW,298,4.0,8.1,31,0.00,,---,0.00,VWS V14.01,2013-01-17 01:17:00,
2013-01-16 18:19:00,38.3,10.3,30.20,WNW,291,5.8,8.1,31,0.00,,---,0.00,VWS V14.01,2013-01-17 01:19:00,
2013-01-16 18:20:00,38.3,10.3,30.20,NW,309,5.8,8.1,31,0.00,,---,0.00,VWS V14.01,2013-01-17 01:20:00,
2013-01-16 18:22:00,38.3,10.3,30.20,West,278,6.3,8.1,31,0.00,,---,0.00,VWS V14.01,2013-01-17 01:22:00,
2013-01-16 18:24:00,38.1,10.2,30.20,West,278,5.4,8.1,31,0.00,,---,0.00,VWS V14.01,2013-01-17 01:24:00,
2013-01-16 18:25:00,38.3,10.3,30.20,West,274,7.6,8.1,31,0.00,,---,0.00,VWS V14.01,2013-01-17 01:25:00,
2013-01-16 18:27:00,38.3,10.3,30.17,WNW,284,5.4,8.1,31,0.00,,---,0.00,VWS V14.01,2013-01-17 01:27:00,
2013-01-16 18:28:00,38.3,10.3,30.17,West,268,6.3,8.1,31,0.00,,---,0.00,VWS V14.01,2013-01-17 01:28:00,
2013-01-16 18:29:00,38.3,10.3,30.17,WNW,283,5.4,8.1,31,0.00,,---,0.00,VWS V14.01,2013-01-17 01:29:00,
2013-01-16 18:30:00,38.3,10.3,30.17,WSW,248,3.6,4.9,31,0.00,,---,0.00,VWS V14.01,2013-01-17 01:30:00,
2013-01-16 18:32:00,38.3,10.3,30.17,NNW,334,5.4,6.3,31,0.00,,---,0.00,VWS V14.01,2013-01-17 01:32:00,
2013-01-16 18:33:00,38.3,10.3,30.17,WNW,288,5.4,6.3,31,0.00,,---,0.00,VWS V14.01,2013-01-17 01:33:00,
2013-01-16 18:34:00,38.3,10.3,30.17,WNW,293,6.3,10.5,31,0.00,,---,0.00,VWS V14.01,2013-01-17 01:34:00,
2013-01-16 18:36:00,38.3,10.3,30.17,WNW,286,3.6,10.5,31,0.00,,---,0.00,VWS V14.01,2013-01-17 01:36:00,
2013-01-16 18:37:00,38.3,10.3,30.17,West,278,6.3,10.5,31,0.00,,---,0.00,VWS V14.01,2013-01-17 01:37:00,
2013-01-16 18:38:00,38.3,10.3,30.17,NW,305,5.4,10.5,31,0.00,,---,0.00,VWS V14.01,2013-01-17 01:38:00,
2013-01-16 18:39:00,38.3,10.3,30.17,West,262,4.0,10.5,31,0.00,,---,0.00,VWS V14.01,2013-01-17 01:39:00,
2013-01-16 18:41:00,38.1,10.2,30.17,WNW,282,6.3,10.5,31,0.00,,---,0.00,VWS V14.01,2013-01-17 01:41:00,
2013-01-16 18:42:00,38.1,10.2,30.20,West,276,4.0,10.5,31,0.00,,---,0.00,VWS V14.01,2013-01-17 01:42:00,
2013-01-16 18:43:00,38.1,10.2,30.20,NW,309,4.0,10.5,31,0.00,,---,0.00,VWS V14.01,2013-01-17 01:43:00,
2013-01-16 18:44:00,38.1,10.2,30.20,WNW,282,8.3,10.5,31,0.00,,---,0.00,VWS V14.01,2013-01-17 01:44:00,
2013-01-16 18:46:00,38.1,10.2,30.20,WNW,282,4.0,6.3,31,0.00,,---,0.00,VWS V14.01,2013-01-17 01:46:00,
2013-01-16 18:47:00,38.1,10.2,30.20,WNW,287,8.1,8.1,31,0.00,,---,0.00,VWS V14.01,2013-01-17 01:47:00,
2013-01-16 18:48:00,38.3,10.3,30.20,WNW,298,4.0,8.1,31,0.00,,---,0.00,VWS V14.01,2013-01-17 01:48:00,
2013-01-16 18:50:00,38.3,10.3,30.20,WNW,287,3.1,8.1,31,0.00,,---,0.00,VWS V14.01,2013-01-17 01:50:00,
2013-01-16 18:52:00,38.3,10.3,30.20,West,278,5.4,8.1,31,0.00,,---,0.00,VWS V14.01,2013-01-17 01:52:00,
2013-01-16 18:53:00,38.3,10.3,30.20,WNW,294,3.1,8.1,31,0.00,,---,0.00,VWS V14.01,2013-01-17 01:53:00,
2013-01-16 18:55:00,38.3,10.3,30.20,NW,317,3.1,8.1,31,0.00,,---,0.00,VWS V14.01,2013-01-17 01:55:00,
2013-01-16 18:57:00,38.1,10.2,30.20,WNW,300,5.8,8.3,31,0.00,,---,0.00,VWS V14.01,2013-01-17 01:57:00,
2013-01-16 18:58:00,38.1,10.2,30.20,NW,310,5.8,8.3,31,0.00,,---,0.00,VWS V14.01,2013-01-17 01:58:00,
2013-01-16 19:00:00,38.1,10.2,30.20,NW,304,5.4,6.3,31,0.00,,---,0.00,VWS V14.01,2013-01-17 02:00:00,
2013-01-16 19:02:00,38.3,10.3,30.20,WNW,283,3.1,6.3,31,0.00,,---,0.00,VWS V14.01,2013-01-17 02:02:00,
2013-01-16 19:03:00,38.3,10.3,30.20,WNW,289,2.7,6.3,31,0.00,,---,0.00,VWS V14.01,2013-01-17 02:03:00,
2013-01-16 19:04:00,38.3,10.3,30.20,WNW,300,3.6,6.3,31,0.00,,---,0.00,VWS V14.01,2013-01-17 02:04:00,
2013-01-16 19:05:00,38.3,10.3,30.20,WNW,302,3.1,6.3,31,0.00,,---,0.00,VWS V14.01,2013-01-17 02:05:00,
2013-01-16 19:07:00,38.1,10.2,30.20,West,275,5.4,6.3,31,0.00,,---,0.00,VWS V14.01,2013-01-17 02:07:00,
2013-01-16 19:09:00,38.1,10.2,30.20,West,273,4.9,6.3,31,0.00,,---,0.00,VWS V14.01,2013-01-17 02:09:00,
2013-01-16 19:11:00,38.1,10.2,30.20,WNW,293,6.3,8.3,31,0.00,,---,0.00,VWS V14.01,2013-01-17 02:11:00,
2013-01-16 19:12:00,38.1,10.2,30.20,WNW,296,5.4,8.7,31,0.00,,---,0.00,VWS V14.01,2013-01-17 02:12:00,
2013-01-16 19:14:00,38.1,10.2,30.20,West,275,4.9,8.7,31,0.00,,---,0.00,VWS V14.01,2013-01-17 02:14:00,
2013-01-16 19:16:00,38.1,10.2,30.20,West,268,4.0,5.8,31,0.00,,---,0.00,VWS V14.01,2013-01-17 02:16:00,
2013-01-16 19:17:00,38.1,10.2,30.20,West,279,3.1,5.8,31,0.00,,---,0.00,VWS V14.01,2013-01-17 02:17:00,
2013-01-16 19:19:00,37.9,10.0,30.20,West,279,2.7,5.8,31,0.00,,---,0.00,VWS V14.01,2013-01-17 02:19:00,
2013-01-16 19:21:00,37.8,9.9,30.20,West,268,2.7,5.8,31,0.00,,---,0.00,VWS V14.01,2013-01-17 02:21:00,
2013-01-16 19:22:00,37.6,9.7,30.20,West,279,4.0,5.8,31,0.00,,---,0.00,VWS V14.01,2013-01-17 02:22:00,
2013-01-16 19:24:00,37.4,9.5,30.20,West,277,3.1,5.8,31,0.00,,---,0.00,VWS V14.01,2013-01-17 02:24:00,
2013-01-16 19:26:00,37.2,10.1,30.20,SSW,212,4.9,5.8,32,0.00,,---,0.00,VWS V14.01,2013-01-17 02:26:00,
2013-01-16 19:27:00,37.2,10.1,30.20,WNW,284,3.6,5.8,32,0.00,,---,0.00,VWS V14.01,2013-01-17 02:27:00,
2013-01-16 19:29:00,37.4,9.5,30.20,SW,224,7.6,7.6,31,0.00,,---,0.00,VWS V14.01,2013-01-17 02:29:00,
2013-01-16 19:31:00,37.6,9.7,30.20,West,266,4.9,5.4,31,0.00,,---,0.00,VWS V14.01,2013-01-17 02:31:00,
2013-01-16 19:32:00,37.6,9.7,30.20,WNW,295,4.0,5.8,31,0.00,,---,0.00,VWS V14.01,2013-01-17 02:32:00,
2013-01-16 19:34:00,37.6,9.7,30.20,WNW,283,4.0,5.8,31,0.00,,---,0.00,VWS V14.01,2013-01-17 02:34:00,
2013-01-16 19:35:00,37.8,9.9,30.20,WNW,299,2.7,5.8,31,0.00,,---,0.00,VWS V14.01,2013-01-17 02:35:00,
2013-01-16 19:36:00,37.8,9.9,30.20,West,271,4.0,5.8,31,0.00,,---,0.00,VWS V14.01,2013-01-17 02:36:00,
2013-01-16 19:37:00,37.9,10.0,30.20,West,259,8.1,8.1,31,0.00,,---,0.00,VWS V14.01,2013-01-17 02:37:00,
2013-01-16 19:39:00,38.1,10.2,30.20,WNW,294,8.7,8.7,31,0.00,,---,0.00,VWS V14.01,2013-01-17 02:39:00,
2013-01-16 19:40:00,38.1,10.2,30.20,SW,235,3.6,8.7,31,0.00,,---,0.00,VWS V14.01,2013-01-17 02:40:00,
2013-01-16 19:41:00,38.3,10.3,30.20,SW,233,4.0,8.7,31,0.00,,---,0.00,VWS V14.01,2013-01-17 02:41:00,
2013-01-16 19:42:00,38.3,10.3,30.20,West,268,8.1,8.7,31,0.00,,---,0.00,VWS V14.01,2013-01-17 02:42:00,
2013-01-16 19:44:00,38.5,10.5,30.20,West,262,3.6,8.7,31,0.00,,---,0.00,VWS V14.01,2013-01-17 02:44:00,
2013-01-16 19:45:00,38.5,10.5,30.20,SSW,212,5.8,8.7,31,0.00,,---,0.00,VWS V14.01,2013-01-17 02:45:00,
2013-01-16 19:46:00,38.5,10.5,30.20,WNW,297,4.0,5.8,31,0.00,,---,0.00,VWS V14.01,2013-01-17 02:46:00,
2013-01-16 19:47:00,38.5,10.5,30.20,West,271,3.6,5.8,31,0.00,,---,0.00,VWS V14.01,2013-01-17 02:47:00,
2013-01-16 19:50:00,38.1,10.2,30.20,WNW,294,5.8,6.3,31,0.00,,---,0.00,VWS V14.01,2013-01-17 02:50:00,
2013-01-16 19:51:00,37.9,10.0,30.20,West,264,2.7,6.3,31,0.00,,---,0.00,VWS V14.01,2013-01-17 02:51:00,
2013-01-16 19:53:00,37.9,10.0,30.20,West,279,3.6,6.3,31,0.00,,---,0.00,VWS V14.01,2013-01-17 02:53:00,
2013-01-16 19:55:00,37.9,10.0,30.20,SW,235,3.6,8.1,31,0.00,,---,0.00,VWS V14.01,2013-01-17 02:55:00,
2013-01-16 19:56:00,37.9,10.0,30.20,West,263,3.1,8.1,31,0.00,,---,0.00,VWS V14.01,2013-01-17 02:56:00,
2013-01-16 19:58:00,37.9,10.0,30.20,SW,235,3.6,8.1,31,0.00,,---,0.00,VWS V14.01,2013-01-17 02:58:00,
2013-01-16 20:00:00,37.9,10.0,30.20,NW,322,3.6,8.1,31,0.00,,---,0.00,VWS V14.01,2013-01-17 03:00:00,
2013-01-16 20:01:00,37.9,10.0,30.20,West,269,5.8,5.8,31,0.00,,---,0.00,VWS V14.01,2013-01-17 03:01:00,
2013-01-16 20:03:00,37.9,10.0,30.20,WSW,244,3.1,8.1,31,0.00,,---,0.00,VWS V14.01,2013-01-17 03:03:00,
2013-01-16 20:05:00,37.8,9.9,30.20,West,267,3.6,8.1,31,0.00,,---,0.00,VWS V14.01,2013-01-17 03:05:00,
2013-01-16 20:06:00,37.9,10.0,30.20,West,272,2.7,8.1,31,0.00,,---,0.00,VWS V14.01,2013-01-17 03:06:00,
2013-01-16 20:08:00,37.6,9.7,30.20,West,271,4.0,8.1,31,0.00,,---,0.00,VWS V14.01,2013-01-17 03:08:00,
2013-01-16 20:10:00,37.6,9.7,30.20,WNW,302,2.7,8.1,31,0.00,,---,0.00,VWS V14.01,2013-01-17 03:10:00,
2013-01-16 20:11:00,37.6,9.7,30.20,WNW,297,2.7,8.1,31,0.00,,---,0.00,VWS V14.01,2013-01-17 03:11:00,
2013-01-16 20:12:00,37.6,9.7,30.23,WNW,295,5.8,8.1,31,0.00,,---,0.00,VWS V14.01,2013-01-17 03:12:00,
2013-01-16 20:13:00,37.8,9.9,30.23,NW,305,3.6,8.1,31,0.00,,---,0.00,VWS V14.01,2013-01-17 03:13:00,
2013-01-16 20:15:00,37.8,9.9,30.23,WSW,244,2.7,4.9,31,0.00,,---,0.00,VWS V14.01,2013-01-17 03:15:00,
2013-01-16 20:17:00,37.8,9.9,30.23,West,266,2.7,4.9,31,0.00,,---,0.00,VWS V14.01,2013-01-17 03:17:00,
2013-01-16 20:18:00,37.9,10.0,30.23,West,272,3.6,4.9,31,0.00,,---,0.00,VWS V14.01,2013-01-17 03:18:00,
2013-01-16 20:20:00,37.9,10.0,30.23,West,271,4.0,8.7,31,0.00,,---,0.00,VWS V14.01,2013-01-17 03:20:00,
2013-01-16 20:22:00,38.1,10.2,30.23,West,259,4.9,8.7,31,0.00,,---,0.00,VWS V14.01,2013-01-17 03:22:00,
2013-01-16 20:23:00,38.1,10.2,30.23,West,267,6.3,8.7,31,0.00,,---,0.00,VWS V14.01,2013-01-17 03:23:00,
2013-01-16 20:24:00,38.1,10.2,30.23,West,275,4.9,8.7,31,0.00,,---,0.00,VWS V14.01,2013-01-17 03:24:00,
2013-01-16 20:25:00,38.3,10.3,30.23,West,265,6.7,8.7,31,0.00,,---,0.00,VWS V14.01,2013-01-17 03:25:00,
2013-01-16 20:27:00,38.3,10.3,30.23,WSW,244,3.1,8.7,31,0.00,,---,0.00,VWS V14.01,2013-01-17 03:27:00,
2013-01-16 20:28:00,38.3,10.3,30.23,SSW,212,3.1,8.7,31,0.00,,---,0.00,VWS V14.01,2013-01-17 03:28:00,
2013-01-16 20:29:00,38.3,10.3,30.23,SW,234,5.4,8.7,31,0.00,,---,0.00,VWS V14.01,2013-01-17 03:29:00,
2013-01-16 20:31:00,38.1,10.2,30.23,SSW,204,4.9,6.3,31,0.00,,---,0.00,VWS V14.01,2013-01-17 03:31:00,
2013-01-16 20:32:00,38.1,10.2,30.23,SW,224,3.6,6.3,31,0.00,,---,0.00,VWS V14.01,2013-01-17 03:32:00,
2013-01-16 20:33:00,37.9,9.3,30.23,WSW,244,5.4,6.3,30,0.00,,---,0.00,VWS V14.01,2013-01-17 03:33:00,
2013-01-16 20:34:00,37.9,10.0,30.23,West,262,2.2,6.3,31,0.00,,---,0.00,VWS V14.01,2013-01-17 03:34:00,
2013-01-16 20:36:00,37.9,10.0,30.23,SSW,202,0.0,6.3,31,0.00,,---,0.00,VWS V14.01,2013-01-17 03:36:00,
2013-01-16 20:37:00,37.8,9.9,30.23,SSW,203,2.7,6.3,31,0.00,,---,0.00,VWS V14.01,2013-01-17 03:37:00,
2013-01-16 20:38:00,37.8,9.9,30.23,South,178,2.7,6.3,31,0.00,,---,0.00,VWS V14.01,2013-01-17 03:38:00,
2013-01-16 20:39:00,37.6,9.7,30.23,South,178,0.0,6.3,31,0.00,,---,0.00,VWS V14.01,2013-01-17 03:39:00,
2013-01-16 20:42:00,37.4,9.5,30.23,West,260,2.7,6.3,31,0.00,,---,0.00,VWS V14.01,2013-01-17 03:42:00,
2013-01-16 20:43:00,37.4,9.5,30.23,WSW,242,3.6,6.3,31,0.00,,---,0.00,VWS V14.01,2013-01-17 03:43:00,
2013-01-16 20:44:00,37.2,9.4,30.23,SW,221,5.4,6.3,31,0.00,,---,0.00,VWS V14.01,2013-01-17 03:44:00,
2013-01-16 20:47:00,37.4,9.5,30.23,West,266,3.1,6.3,31,0.00,,---,0.00,VWS V14.01,2013-01-17 03:47:00,
2013-01-16 20:48:00,37.4,9.5,30.23,WSW,237,4.0,6.3,31,0.00,,---,0.00,VWS V14.01,2013-01-17 03:48:00,
2013-01-16 20:50:00,37.4,9.5,30.23,SSW,204,4.0,6.3,31,0.00,,---,0.00,VWS V14.01,2013-01-17 03:50:00,
2013-01-16 20:52:00,37.2,9.4,30.23,SSW,200,0.0,6.3,31,0.00,,---,0.00,VWS V14.01,2013-01-17 03:52:00,
2013-01-16 20:53:00,37.2,9.4,30.23,SSW,192,0.0,6.3,31,0.00,,---,0.00,VWS V14.01,2013-01-17 03:53:00,
2013-01-16 20:54:00,37.0,9.2,30.23,SSW,208,3.6,6.3,31,0.00,,---,0.00,VWS V14.01,2013-01-17 03:54:00,
2013-01-16 20:55:00,37.0,9.2,30.23,SW,215,2.7,6.3,31,0.00,,---,0.00,VWS V14.01,2013-01-17 03:55:00,
2013-01-16 20:57:00,37.0,9.2,30.23,SSW,195,4.0,6.3,31,0.00,,---,0.00,VWS V14.01,2013-01-17 03:57:00,
2013-01-16 20:58:00,37.0,9.2,30.23,SSW,196,3.6,6.3,31,0.00,,---,0.00,VWS V14.01,2013-01-17 03:58:00,
2013-01-16 20:59:00,37.0,9.2,30.23,South,184,2.7,6.3,31,0.00,,---,0.00,VWS V14.01,2013-01-17 03:59:00,
2013-01-16 21:00:00,37.0,9.2,30.23,SSW,194,2.2,3.1,31,0.00,,---,0.00,VWS V14.01,2013-01-17 04:00:00,
2013-01-16 21:02:00,37.0,9.2,30.23,SSW,195,4.9,4.9,31,0.00,,---,0.00,VWS V14.01,2013-01-17 04:02:00,
2013-01-16 21:03:00,37.0,9.2,30.23,SSW,206,4.0,5.8,31,0.00,,---,0.00,VWS V14.01,2013-01-17 04:03:00,
2013-01-16 21:04:00,37.0,9.2,30.23,SSW,203,4.0,5.8,31,0.00,,---,0.00,VWS V14.01,2013-01-17 04:04:00,
2013-01-16 21:05:00,37.0,9.2,30.23,South,191,4.0,6.3,31,0.00,,---,0.00,VWS V14.01,2013-01-17 04:05:00,
2013-01-16 21:07:00,37.2,9.4,30.23,SSW,198,4.0,6.3,31,0.00,,---,0.00,VWS V14.01,2013-01-17 04:07:00,
2013-01-16 21:08:00,37.2,9.4,30.23,SSW,195,5.4,6.3,31,0.00,,---,0.00,VWS V14.01,2013-01-17 04:08:00,
2013-01-16 21:09:00,37.2,9.4,30.23,SSW,202,3.6,6.3,31,0.00,,---,0.00,VWS V14.01,2013-01-17 04:09:00,
2013-01-16 21:10:00,37.4,8.8,30.23,SSW,195,4.9,6.3,30,0.00,,---,0.00,VWS V14.01,2013-01-17 04:10:00,
2013-01-16 21:12:00,37.4,8.8,30.23,SSW,201,3.6,6.3,30,0.00,,---,0.00,VWS V14.01,2013-01-17 04:12:00,
2013-01-16 21:13:00,37.2,8.6,30.23,SSW,213,5.4,6.3,30,0.00,,---,0.00,VWS V14.01,2013-01-17 04:13:00,
2013-01-16 21:14:00,37.4,8.8,30.23,SSW,209,4.0,6.3,30,0.00,,---,0.00,VWS V14.01,2013-01-17 04:14:00,
2013-01-16 21:16:00,37.4,8.8,30.23,South,182,6.3,6.3,30,0.00,,---,0.00,VWS V14.01,2013-01-17 04:16:00,
2013-01-16 21:17:00,37.4,8.8,30.23,South,190,4.0,7.6,30,0.00,,---,0.00,VWS V14.01,2013-01-17 04:17:00,
2013-01-16 21:18:00,37.4,8.8,30.23,South,190,4.0,7.6,30,0.00,,---,0.00,VWS V14.01,2013-01-17 04:18:00,
2013-01-16 21:19:00,37.4,8.8,30.23,South,186,3.6,7.6,30,0.00,,---,0.00,VWS V14.01,2013-01-17 04:19:00,
2013-01-16 21:21:00,37.6,9.0,30.23,South,171,5.4,7.6,30,0.00,,---,0.00,VWS V14.01,2013-01-17 04:21:00,
2013-01-16 21:23:00,37.6,9.0,30.23,South,185,3.6,7.6,30,0.00,,---,0.00,VWS V14.01,2013-01-17 04:23:00,
2013-01-16 21:24:00,37.6,9.0,30.23,South,180,3.6,7.6,30,0.00,,---,0.00,VWS V14.01,2013-01-17 04:24:00,
2013-01-16 21:26:00,37.6,9.0,30.23,SSW,196,3.1,7.6,30,0.00,,---,0.00,VWS V14.01,2013-01-17 04:26:00,
2013-01-16 21:28:00,37.6,9.0,30.20,South,191,5.4,7.6,30,0.00,,---,0.00,VWS V14.01,2013-01-17 04:28:00,
2013-01-16 21:30:00,37.6,9.0,30.20,SSW,204,4.9,7.6,30,0.00,,---,0.00,VWS V14.01,2013-01-17 04:30:00,
2013-01-16 21:31:00,37.6,9.0,30.20,SSW,197,3.6,5.4,30,0.00,,---,0.00,VWS V14.01,2013-01-17 04:31:00,
2013-01-16 21:33:00,37.6,9.0,30.20,SSW,193,4.0,5.4,30,0.00,,---,0.00,VWS V14.01,2013-01-17 04:33:00,
2013-01-16 21:35:00,37.6,9.0,30.20,South,173,2.7,5.4,30,0.00,,---,0.00,VWS V14.01,2013-01-17 04:35:00,
2013-01-16 21:36:00,37.6,9.0,30.20,SSE,164,2.7,5.4,30,0.00,,---,0.00,VWS V14.01,2013-01-17 04:36:00,
2013-01-16 21:38:00,37.4,8.8,30.20,SSW,192,2.7,5.4,30,0.00,,---,0.00,VWS V14.01,2013-01-17 04:38:00,
2013-01-16 21:39:00,37.2,8.6,30.20,SSW,192,0.0,5.4,30,0.00,,---,0.00,VWS V14.01,2013-01-17 04:39:00,
2013-01-16 21:40:00,37.2,8.6,30.20,SSW,192,0.0,5.4,30,0.00,,---,0.00,VWS V14.01,2013-01-17 04:40:00,
2013-01-16 21:41:00,37.2,8.6,30.20,South,191,3.1,5.4,30,0.00,,---,0.00,VWS V14.01,2013-01-17 04:41:00,
2013-01-16 21:43:00,36.7,8.2,30.23,SSW,201,2.2,5.4,30,0.00,,---,0.00,VWS V14.01,2013-01-17 04:43:00,
2013-01-16 21:44:00,36.7,8.2,30.23,SSW,206,2.7,5.4,30,0.00,,---,0.00,VWS V14.01,2013-01-17 04:44:00,
2013-01-16 21:45:00,36.7,8.2,30.23,SSW,206,0.0,0.0,30,0.00,,---,0.00,VWS V14.01,2013-01-17 04:45:00,
2013-01-16 21:46:00,36.7,8.2,30.23,SSW,206,0.0,0.0,30,0.00,,---,0.00,VWS V14.01,2013-01-17 04:46:00,
2013-01-16 21:48:00,36.3,7.9,30.23,SSW,206,0.0,0.0,30,0.00,,---,0.00,VWS V14.01,2013-01-17 04:48:00,
2013-01-16 21:49:00,36.3,7.9,30.23,SSW,206,0.0,0.0,30,0.00,,---,0.00,VWS V14.01,2013-01-17 04:49:00,
2013-01-16 21:50:00,36.3,7.9,30.23,SSW,199,2.2,2.7,30,0.00,,---,0.00,VWS V14.01,2013-01-17 04:50:00,
2013-01-16 21:51:00,36.1,7.7,30.23,SSE,166,3.1,3.1,30,0.00,,---,0.00,VWS V14.01,2013-01-17 04:51:00,
2013-01-16 21:54:00,36.1,7.7,30.23,SSE,158,2.2,3.1,30,0.00,,---,0.00,VWS V14.01,2013-01-17 04:54:00,
2013-01-16 21:55:00,36.0,7.6,30.23,SSE,158,0.0,3.1,30,0.00,,---,0.00,VWS V14.01,2013-01-17 04:55:00,
2013-01-16 21:56:00,35.8,7.4,30.23,SSE,158,0.0,3.1,30,0.00,,---,0.00,VWS V14.01,2013-01-17 04:56:00,
2013-01-16 21:59:00,35.6,7.2,30.23,SSE,158,0.0,3.1,30,0.00,,---,0.00,VWS V14.01,2013-01-17 04:59:00,
2013-01-16 22:00:00,35.4,7.8,30.23,SSW,210,4.0,4.0,31,0.00,,---,0.00,VWS V14.01,2013-01-17 05:00:00,
2013-01-16 22:03:00,35.2,7.7,30.23,SW,236,0.0,3.6,31,0.00,,---,0.00,VWS V14.01,2013-01-17 05:03:00,
2013-01-16 22:05:00,35.2,7.7,30.23,SW,223,2.2,3.6,31,0.00,,---,0.00,VWS V14.01,2013-01-17 05:05:00,
2013-01-16 22:08:00,35.1,7.5,30.23,SW,215,2.7,3.6,31,0.00,,---,0.00,VWS V14.01,2013-01-17 05:08:00,
2013-01-16 22:10:00,34.9,7.3,30.23,SSW,210,0.0,3.6,31,0.00,,---,0.00,VWS V14.01,2013-01-17 05:10:00,
2013-01-16 22:11:00,34.5,7.0,30.23,SSW,193,2.7,3.6,31,0.00,,---,0.00,VWS V14.01,2013-01-17 05:11:00,
2013-01-16 22:13:00,34.3,6.9,30.20,South,185,3.1,4.0,31,0.00,,---,0.00,VWS V14.01,2013-01-17 05:13:00,
2013-01-16 22:15:00,34.3,6.9,30.20,SSE,155,3.6,3.6,31,0.00,,---,0.00,VWS V14.01,2013-01-17 05:15:00,
2013-01-16 22:16:00,34.3,6.9,30.20,SSE,152,2.7,4.0,31,0.00,,---,0.00,VWS V14.01,2013-01-17 05:16:00,
2013-01-16 22:18:00,34.3,6.9,30.20,SSE,152,3.1,4.0,31,0.00,,---,0.00,VWS V14.01,2013-01-17 05:18:00,
2013-01-16 22:20:00,34.0,6.5,30.20,SSE,152,0.0,4.0,31,0.00,,---,0.00,VWS V14.01,2013-01-17 05:20:00,
2013-01-16 22:21:00,34.0,6.5,30.20,SSE,152,2.2,4.0,31,0.00,,---,0.00,VWS V14.01,2013-01-17 05:21:00,
2013-01-16 22:23:00,33.8,6.4,30.20,SSW,203,3.6,4.0,31,0.00,,---,0.00,VWS V14.01,2013-01-17 05:23:00,
2013-01-16 22:25:00,34.0,6.5,30.20,SSE,154,3.1,4.0,31,0.00,,---,0.00,VWS V14.01,2013-01-17 05:25:00,
2013-01-16 22:26:00,34.0,6.5,30.20,SSE,154,2.2,4.0,31,0.00,,---,0.00,VWS V14.01,2013-01-17 05:26:00,
2013-01-16 22:28:00,34.0,6.5,30.23,SSE,154,0.0,4.0,31,0.00,,---,0.00,VWS V14.01,2013-01-17 05:28:00,
2013-01-16 22:30:00,34.0,6.5,30.23,SSE,154,0.0,0.0,31,0.00,,---,0.00,VWS V14.01,2013-01-17 05:30:00,
2013-01-16 22:31:00,34.0,6.5,30.23,SSE,154,2.7,2.7,31,0.00,,---,0.00,VWS V14.01,2013-01-17 05:31:00,
2013-01-16 22:34:00,33.6,6.2,30.23,SSE,154,0.0,2.7,31,0.00,,---,0.00,VWS V14.01,2013-01-17 05:34:00,
2013-01-16 22:35:00,33.6,6.2,30.23,SSE,154,0.0,2.7,31,0.00,,---,0.00,VWS V14.01,2013-01-17 05:35:00,
2013-01-16 22:37:00,33.4,6.1,30.23,SSE,151,3.6,3.6,31,0.00,,---,0.00,VWS V14.01,2013-01-17 05:37:00,
2013-01-16 22:39:00,33.3,5.9,30.23,SSE,151,0.0,3.6,31,0.00,,---,0.00,VWS V14.01,2013-01-17 05:39:00,
2013-01-16 22:40:00,33.3,6.6,30.23,SSE,151,0.0,3.6,32,0.00,,---,0.00,VWS V14.01,2013-01-17 05:40:00,
2013-01-16 22:41:00,33.3,6.6,30.23,SSE,151,0.0,3.6,32,0.00,,---,0.00,VWS V14.01,2013-01-17 05:41:00,
2013-01-16 22:42:00,33.1,5.8,30.23,SSE,151,0.0,3.6,31,0.00,,---,0.00,VWS V14.01,2013-01-17 05:42:00,
2013-01-16 22:44:00,33.1,5.8,30.23,SSE,151,0.0,3.6,31,0.00,,---,0.00,VWS V14.01,2013-01-17 05:44:00,
2013-01-16 22:46:00,33.1,5.8,30.23,SSE,151,0.0,0.0,31,0.00,,---,0.00,VWS V14.01,2013-01-17 05:46:00,
2013-01-16 22:47:00,33.1,6.4,30.23,SSE,151,2.2,2.2,32,0.00,,---,0.00,VWS V14.01,2013-01-17 05:47:00,
2013-01-16 22:49:00,33.1,5.8,30.23,SSE,151,0.0,2.7,31,0.00,,---,0.00,VWS V14.01,2013-01-17 05:49:00,
2013-01-16 22:51:00,33.3,6.6,30.23,WSW,258,3.6,3.6,32,0.00,,---,0.00,VWS V14.01,2013-01-17 05:51:00,
2013-01-16 22:52:00,33.3,6.6,30.23,WSW,258,0.0,3.6,32,0.00,,---,0.00,VWS V14.01,2013-01-17 05:52:00,
2013-01-16 22:55:00,33.4,6.1,30.23,WSW,258,0.0,3.6,31,0.00,,---,0.00,VWS V14.01,2013-01-17 05:55:00,
2013-01-16 22:56:00,33.4,6.1,30.23,South,189,3.1,3.6,31,0.00,,---,0.00,VWS V14.01,2013-01-17 05:56:00,
2013-01-16 22:57:00,33.6,6.2,30.23,SSW,200,3.1,4.0,31,0.00,,---,0.00,VWS V14.01,2013-01-17 05:57:00,
2013-01-16 23:00:00,34.0,6.5,30.23,SSW,199,2.7,4.0,31,0.00,,---,0.00,VWS V14.01,2013-01-17 06:00:00,
2013-01-16 23:01:00,34.3,6.9,30.23,SW,217,3.1,3.6,31,0.00,,---,0.00,VWS V14.01,2013-01-17 06:01:00,
2013-01-16 23:02:00,34.5,7.0,30.23,SSW,211,2.7,3.6,31,0.00,,---,0.00,VWS V14.01,2013-01-17 06:02:00,
2013-01-16 23:05:00,35.1,7.5,30.23,SSW,203,3.6,3.6,31,0.00,,---,0.00,VWS V14.01,2013-01-17 06:05:00,
2013-01-16 23:06:00,35.2,7.7,30.23,SSW,203,0.0,3.6,31,0.00,,---,0.00,VWS V14.01,2013-01-17 06:06:00,
2013-01-16 23:07:00,35.2,7.7,30.23,SSW,203,0.0,3.6,31,0.00,,---,0.00,VWS V14.01,2013-01-17 06:07:00,
2013-01-16 23:08:00,35.2,7.7,30.23,SSW,203,0.0,3.6,31,0.00,,---,0.00,VWS V14.01,2013-01-17 06:08:00,
2013-01-16 23:10:00,35.2,7.7,30.23,SSW,203,0.0,3.6,31,0.00,,---,0.00,VWS V14.01,2013-01-17 06:10:00,
2013-01-16 23:11:00,35.1,7.5,30.23,SSW,203,0.0,3.6,31,0.00,,---,0.00,VWS V14.01,2013-01-17 06:11:00,
2013-01-16 23:12:00,35.1,7.5,30.23,SSW,203,0.0,3.6,31,0.00,,---,0.00,VWS V14.01,2013-01-17 06:12:00,
2013-01-16 23:13:00,35.1,7.5,30.23,SSW,203,0.0,3.6,31,0.00,,---,0.00,VWS V14.01,2013-01-17 06:13:00,
2013-01-16 23:15:00,34.9,7.3,30.23,SSW,203,2.7,2.7,31,0.00,,---,0.00,VWS V14.01,2013-01-17 06:15:00,
2013-01-16 23:16:00,34.9,7.3,30.23,SSW,203,2.2,2.7,31,0.00,,---,0.00,VWS V14.01,2013-01-17 06:16:00,
2013-01-16 23:17:00,34.7,7.2,30.23,South,170,2.7,3.6,31,0.00,,---,0.00,VWS V14.01,2013-01-17 06:17:00,
2013-01-16 23:18:00,34.7,7.2,30.23,South,178,2.7,4.0,31,0.00,,---,0.00,VWS V14.01,2013-01-17 06:18:00,
2013-01-16 23:20:00,34.7,7.2,30.23,SSW,203,0.0,4.0,31,0.00,,---,0.00,VWS V14.01,2013-01-17 06:20:00,
2013-01-16 23:22:00,34.9,7.3,30.23,SSW,203,2.7,4.0,31,0.00,,---,0.00,VWS V14.01,2013-01-17 06:22:00,
2013-01-16 23:23:00,34.9,7.3,30.23,SSW,203,0.0,4.0,31,0.00,,---,0.00,VWS V14.01,2013-01-17 06:23:00,
2013-01-16 23:25:00,34.7,7.2,30.23,SSE,158,0.0,4.0,31,0.00,,---,0.00,VWS V14.01,2013-01-17 06:25:00,
2013-01-16 23:27:00,34.5,7.0,30.23,SSE,158,0.0,4.0,31,0.00,,---,0.00,VWS V14.01,2013-01-17 06:27:00,
2013-01-16 23:28:00,34.5,7.0,30.23,SSE,155,2.7,4.0,31,0.00,,---,0.00,VWS V14.01,2013-01-17 06:28:00,
2013-01-16 23:30:00,34.3,6.9,30.23,SSE,155,0.0,0.0,31,0.00,,---,0.00,VWS V14.01,2013-01-17 06:30:00,
2013-01-16 23:32:00,34.3,6.9,30.23,SSE,155,0.0,0.0,31,0.00,,---,0.00,VWS V14.01,2013-01-17 06:32:00,
2013-01-16 23:33:00,34.2,6.7,30.23,SSE,155,0.0,0.0,31,0.00,,---,0.00,VWS V14.01,2013-01-17 06:33:00,
2013-01-16 23:36:00,33.8,6.4,30.23,SSE,155,0.0,0.0,31,0.00,,---,0.00,VWS V14.01,2013-01-17 06:36:00,
2013-01-16 23:37:00,33.8,6.4,30.23,SSE,155,0.0,0.0,31,0.00,,---,0.00,VWS V14.01,2013-01-17 06:37:00,
2013-01-16 23:38:00,33.6,6.2,30.23,SSE,155,0.0,0.0,31,0.00,,---,0.00,VWS V14.01,2013-01-17 06:38:00,
2013-01-16 23:41:00,33.4,6.1,30.23,SSE,155,0.0,0.0,31,0.00,,---,0.00,VWS V14.01,2013-01-17 06:41:00,
2013-01-16 23:42:00,33.3,5.9,30.23,SSE,155,0.0,0.0,31,0.00,,---,0.00,VWS V14.01,2013-01-17 06:42:00,
2013-01-16 23:43:00,33.3,5.9,30.23,SSE,155,0.0,0.0,31,0.00,,---,0.00,VWS V14.01,2013-01-17 06:43:00,
2013-01-16 23:46:00,32.9,5.6,30.23,SSE,155,0.0,0.0,31,0.00,,---,0.00,VWS V14.01,2013-01-17 06:46:00,
2013-01-16 23:47:00,32.9,5.6,30.23,SSE,155,0.0,0.0,31,0.00,,---,0.00,VWS V14.01,2013-01-17 06:47:00,
2013-01-16 23:48:00,32.9,5.6,30.23,SSE,155,0.0,0.0,31,0.00,,---,0.00,VWS V14.01,2013-01-17 06:48:00,
2013-01-16 23:51:00,32.7,5.4,30.23,SSE,155,0.0,0.0,31,0.00,,---,0.00,VWS V14.01,2013-01-17 06:51:00,
2013-01-16 23:52:00,32.7,5.4,30.23,SSE,155,0.0,0.0,31,0.00,,---,0.00,VWS V14.01,2013-01-17 06:52:00,
2013-01-16 23:53:00,32.7,5.4,30.23,SSE,155,0.0,0.0,31,0.00,,---,0.00,VWS V14.01,2013-01-17 06:53:00,
2013-01-16 23:54:00,32.7,5.4,30.23,SSE,155,0.0,0.0,31,0.00,,---,0.00,VWS V14.01,2013-01-17 06:54:00,
2013-01-16 23:56:00,32.5,5.3,30.23,SSE,155,0.0,0.0,31,0.00,,---,0.00,VWS V14.01,2013-01-17 06:56:00,
2013-01-16 23:57:00,32.5,5.3,30.26,SSE,155,0.0,0.0,31,0.00,,---,0.00,VWS V14.01,2013-01-17 06:57:00,
2013-01-16 23:58:00,32.5,5.3,30.26,SSE,155,0.0,0.0,31,0.00,,---,0.00,VWS V14.01,2013-01-17 06:58:00,
2013-01-16 23:59:00,32.5,5.3,30.26,SSE,155,0.0,0.0,31,0.00,,---,0.00,VWS V14.01,2013-01-17 06:59:00,